Observation data for Vigo Park on 07/17/2019      Previous  Date  Next       Current Mesonet Observations  Soil Data  Daily Summary Page  Observations in Plain Language
KVP1 170500Z 14006KT 25/15 A3005 RMK A01 T02540146  RH  051%=      5-min Rain = 0
KVP1 170501Z 14006KT 25/15 A3004 RMK A01 T02530146  RH  052%=      5-min Rain = 0
KVP1 170502Z 14007KT 25/15 A3004 RMK A01 T02530147  RH  052%=      5-min Rain = 0
KVP1 170503Z 14007KT 25/15 A3004 RMK A01 T02530147  RH  052%=      5-min Rain = 0
KVP1 170504Z 14007KT 25/15 A3004 RMK A01 T02530148  RH  052%=      5-min Rain = 0
KVP1 170505Z 14007KT 25/15 A3004 RMK A01 T02530148  RH  052%=      5-min Rain = 0
KVP1 170506Z 14007KT 25/15 A3004 RMK A01 T02530149  RH  052%=      5-min Rain = 0
KVP1 170507Z 14007KT 25/15 A3004 RMK A01 T02520148  RH  052%=      5-min Rain = 0
KVP1 170508Z 14008KT 25/15 A3004 RMK A01 T02520148  RH  052%=      5-min Rain = 0
KVP1 170509Z 15007KT 25/15 A3004 RMK A01 T02530149  RH  052%=      5-min Rain = 0
KVP1 170510Z 14007KT 25/15 A3004 RMK A01 T02540149  RH  052%=      5-min Rain = 0
KVP1 170511Z 15007KT 25/15 A3004 RMK A01 T02540149  RH  052%=      5-min Rain = 0
KVP1 170512Z 15007KT 25/15 A3004 RMK A01 T02540149  RH  052%=      5-min Rain = 0
KVP1 170513Z 15007KT 25/15 A3004 RMK A01 T02540149  RH  052%=      5-min Rain = 0
KVP1 170514Z 15007KT 25/15 A3004 RMK A01 T02540150  RH  052%=      5-min Rain = 0
KVP1 170515Z 15007KT 25/15 A3004 RMK A01 T02540150  RH  052%=      5-min Rain = 0
KVP1 170516Z 15006KT 25/15 A3004 RMK A01 T02540151  RH  053%=      5-min Rain = 0
KVP1 170517Z 15006KT 25/15 A3004 RMK A01 T02530152  RH  053%=      5-min Rain = 0
KVP1 170518Z 15007KT 25/15 A3004 RMK A01 T02530152  RH  054%=      5-min Rain = 0
KVP1 170519Z 15007KT 25/15 A3004 RMK A01 T02520152  RH  054%=      5-min Rain = 0
KVP1 170520Z 15007KT 25/15 A3004 RMK A01 T02520151  RH  054%=      5-min Rain = 0
KVP1 170521Z 15007KT 25/15 A3004 RMK A01 T02520152  RH  054%=      5-min Rain = 0
KVP1 170522Z 15007KT 25/15 A3004 RMK A01 T02510152  RH  054%=      5-min Rain = 0
KVP1 170523Z 15007KT 25/15 A3004 RMK A01 T02510152  RH  054%=      5-min Rain = 0
KVP1 170524Z 15007KT 25/15 A3004 RMK A01 T02510152  RH  054%=      5-min Rain = 0
KVP1 170525Z 16007KT 25/15 A3004 RMK A01 T02510151  RH  054%=      5-min Rain = 0
KVP1 170526Z 16007KT 25/15 A3004 RMK A01 T02520152  RH  054%=      5-min Rain = 0
KVP1 170527Z 16008KT 25/15 A3004 RMK A01 T02520152  RH  054%=      5-min Rain = 0
KVP1 170528Z 16007KT 25/15 A3004 RMK A01 T02520152  RH  054%=      5-min Rain = 0
KVP1 170529Z 16007KT 25/15 A3004 RMK A01 T02520151  RH  054%=      5-min Rain = 0
KVP1 170530Z 16007KT 25/15 A3004 RMK A01 T02520151  RH  054%=      5-min Rain = 0
KVP1 170531Z 16008KT 25/15 A3004 RMK A01 T02520151  RH  053%=      5-min Rain = 0
KVP1 170532Z 16007KT 25/15 A3004 RMK A01 T02530151  RH  053%=      5-min Rain = 0
KVP1 170533Z 16007KT 25/15 A3004 RMK A01 T02530152  RH  053%=      5-min Rain = 0
KVP1 170534Z 16007KT 25/15 A3004 RMK A01 T02530151  RH  053%=      5-min Rain = 0
KVP1 170535Z 16007KT 25/15 A3004 RMK A01 T02530151  RH  053%=      5-min Rain = 0
KVP1 170536Z 16007KT 25/15 A3004 RMK A01 T02530152  RH  053%=      5-min Rain = 0
KVP1 170537Z 16006KT 25/15 A3004 RMK A01 T02530151  RH  053%=      5-min Rain = 0
KVP1 170538Z 16007KT 25/15 A3004 RMK A01 T02530151  RH  053%=      5-min Rain = 0
KVP1 170539Z 16007KT 25/15 A3004 RMK A01 T02530152  RH  053%=      5-min Rain = 0
KVP1 170540Z 16007KT 25/15 A3004 RMK A01 T02520151  RH  053%=      5-min Rain = 0
KVP1 170541Z 16007KT 25/15 A3004 RMK A01 T02520151  RH  054%=      5-min Rain = 0
KVP1 170542Z 16007KT 25/15 A3004 RMK A01 T02520152  RH  054%=      5-min Rain = 0
KVP1 170543Z 16008KT 25/15 A3004 RMK A01 T02510152  RH  054%=      5-min Rain = 0
KVP1 170544Z 16008KT 25/15 A3004 RMK A01 T02510151  RH  054%=      5-min Rain = 0
KVP1 170545Z 16008KT 25/15 A3004 RMK A01 T02510151  RH  054%=      5-min Rain = 0
KVP1 170546Z 16008KT 25/15 A3004 RMK A01 T02510151  RH  054%=      5-min Rain = 0
KVP1 170547Z 16008KT 25/15 A3004 RMK A01 T02510151  RH  054%=      5-min Rain = 0
KVP1 170548Z 16008KT 25/15 A3004 RMK A01 T02520151  RH  054%=      5-min Rain = 0
KVP1 170549Z 16008KT 25/15 A3004 RMK A01 T02510151  RH  054%=      5-min Rain = 0
KVP1 170550Z 16008KT 25/15 A3004 RMK A01 T02520152  RH  054%=      5-min Rain = 0
KVP1 170551Z 16008KT 25/15 A3004 RMK A01 T02510152  RH  054%=      5-min Rain = 0
KVP1 170552Z 16008KT 25/15 A3004 RMK A01 T02510152  RH  054%=      5-min Rain = 0
KVP1 170553Z 16008KT 25/15 A3004 RMK A01 T02510152  RH  054%=      5-min Rain = 0
KVP1 170554Z 16009KT 25/15 A3004 RMK A01 T02510152  RH  054%=      5-min Rain = 0
KVP1 170555Z 16008KT 25/15 A3004 RMK A01 T02510152  RH  054%=      5-min Rain = 0
KVP1 170556Z 16008KT 25/15 A3004 RMK A01 T02510152  RH  054%=      5-min Rain = 0
KVP1 170557Z 16008KT 25/15 A3004 RMK A01 T02510152  RH  054%=      5-min Rain = 0
KVP1 170558Z 16009KT 25/15 A3003 RMK A01 T02510152  RH  054%=      5-min Rain = 0
KVP1 170559Z 16009KT 25/15 A3003 RMK A01 T02500152  RH  054%=      5-min Rain = 0
KVP1 170600Z 16008KT 25/15 A3003 RMK A01 T02500153  RH  055%=      5-min Rain = 0
KVP1 170601Z 16009KT 25/15 A3003 RMK A01 T02500153  RH  055%=      5-min Rain = 0
KVP1 170602Z 16008KT 25/15 A3003 RMK A01 T02500152  RH  055%=      5-min Rain = 0
KVP1 170603Z 15008KT 25/15 A3003 RMK A01 T02500153  RH  055%=      5-min Rain = 0
KVP1 170604Z 16009KT 25/15 A3003 RMK A01 T02500153  RH  055%=      5-min Rain = 0
KVP1 170605Z 16008KT 25/15 A3003 RMK A01 T02490153  RH  055%=      5-min Rain = 0
KVP1 170606Z 16008KT 25/15 A3003 RMK A01 T02490153  RH  055%=      5-min Rain = 0
KVP1 170607Z 16008KT 25/15 A3003 RMK A01 T02490153  RH  055%=      5-min Rain = 0
KVP1 170608Z 16008KT 25/15 A3003 RMK A01 T02480153  RH  055%=      5-min Rain = 0
KVP1 170609Z 16008KT 25/15 A3003 RMK A01 T02480153  RH  056%=      5-min Rain = 0
KVP1 170610Z 16008KT 25/15 A3003 RMK A01 T02480153  RH  056%=      5-min Rain = 0
KVP1 170611Z 16008KT 25/15 A3003 RMK A01 T02480153  RH  056%=      5-min Rain = 0
KVP1 170612Z 16008KT 25/15 A3003 RMK A01 T02480154  RH  056%=      5-min Rain = 0
KVP1 170613Z 16008KT 25/15 A3003 RMK A01 T02480154  RH  056%=      5-min Rain = 0
KVP1 170614Z 16009KT 25/15 A3003 RMK A01 T02490154  RH  056%=      5-min Rain = 0
KVP1 170615Z 16009KT 25/15 A3003 RMK A01 T02490154  RH  056%=      5-min Rain = 0
KVP1 170616Z 16009KT 25/16 A3003 RMK A01 T02500155  RH  056%=      5-min Rain = 0
KVP1 170617Z 16009KT 25/16 A3003 RMK A01 T02500155  RH  055%=      5-min Rain = 0
KVP1 170618Z 17009KT 25/16 A3003 RMK A01 T02510155  RH  055%=      5-min Rain = 0
KVP1 170619Z 17009KT 25/16 A3003 RMK A01 T02510155  RH  055%=      5-min Rain = 0
KVP1 170620Z 17009KT 25/16 A3003 RMK A01 T02520156  RH  055%=      5-min Rain = 0
KVP1 170621Z 17009KT 25/16 A3003 RMK A01 T02520155  RH  055%=      5-min Rain = 0
KVP1 170622Z 17009KT 25/16 A3003 RMK A01 T02520155  RH  055%=      5-min Rain = 0
KVP1 170623Z 17008KT 25/16 A3003 RMK A01 T02520156  RH  055%=      5-min Rain = 0
KVP1 170624Z 17008KT 25/16 A3003 RMK A01 T02530156  RH  055%=      5-min Rain = 0
KVP1 170625Z 17008KT 25/16 A3003 RMK A01 T02530156  RH  055%=      5-min Rain = 0
KVP1 170626Z 17007KT 25/16 A3003 RMK A01 T02530156  RH  055%=      5-min Rain = 0
KVP1 170627Z 17007KT 25/16 A3003 RMK A01 T02530156  RH  055%=      5-min Rain = 0
KVP1 170628Z 17008KT 25/16 A3003 RMK A01 T02530156  RH  055%=      5-min Rain = 0
KVP1 170629Z 17008KT 25/16 A3003 RMK A01 T02520156  RH  055%=      5-min Rain = 0
KVP1 170630Z 17007KT 25/16 A3003 RMK A01 T02530156  RH  055%=      5-min Rain = 0
KVP1 170631Z 18008KT 25/16 A3003 RMK A01 T02530157  RH  055%=      5-min Rain = 0
KVP1 170632Z 18008KT 25/16 A3003 RMK A01 T02530157  RH  055%=      5-min Rain = 0
KVP1 170633Z 17008KT 25/16 A3003 RMK A01 T02530157  RH  055%=      5-min Rain = 0
KVP1 170634Z 18008KT 25/16 A3003 RMK A01 T02530157  RH  055%=      5-min Rain = 0
KVP1 170635Z 18008KT 25/16 A3003 RMK A01 T02520157  RH  056%=      5-min Rain = 0
KVP1 170636Z 18009KT 25/16 A3003 RMK A01 T02530158  RH  056%=      5-min Rain = 0
KVP1 170637Z 18009KT 25/16 A3003 RMK A01 T02530158  RH  056%=      5-min Rain = 0
KVP1 170638Z 18009KT 25/16 A3003 RMK A01 T02540158  RH  055%=      5-min Rain = 0
KVP1 170639Z 18009KT 25/16 A3003 RMK A01 T02540159  RH  055%=      5-min Rain = 0
KVP1 170640Z 18010KT 26/16 A3003 RMK A01 T02550159  RH  055%=      5-min Rain = 0
KVP1 170641Z 18010KT 26/16 A3003 RMK A01 T02560159  RH  055%=      5-min Rain = 0
KVP1 170642Z 18010KT 26/16 A3003 RMK A01 T02560159  RH  055%=      5-min Rain = 0
KVP1 170643Z 18009KT 26/16 A3003 RMK A01 T02570160  RH  055%=      5-min Rain = 0
KVP1 170644Z 18010KT 26/16 A3003 RMK A01 T02560160  RH  055%=      5-min Rain = 0
KVP1 170645Z 18010KT 26/16 A3003 RMK A01 T02560160  RH  055%=      5-min Rain = 0
KVP1 170646Z 18009KT 26/16 A3003 RMK A01 T02560160  RH  055%=      5-min Rain = 0
KVP1 170647Z 18009KT 26/16 A3003 RMK A01 T02560160  RH  055%=      5-min Rain = 0
KVP1 170648Z 18010KT 26/16 A3003 RMK A01 T02560160  RH  055%=      5-min Rain = 0
KVP1 170649Z 18010KT 26/16 A3003 RMK A01 T02560160  RH  055%=      5-min Rain = 0
KVP1 170650Z 18009KT 26/16 A3003 RMK A01 T02560160  RH  055%=      5-min Rain = 0
KVP1 170651Z 18009KT 26/16 A3003 RMK A01 T02550160  RH  056%=      5-min Rain = 0
KVP1 170652Z 18009KT 26/16 A3003 RMK A01 T02550160  RH  056%=      5-min Rain = 0
KVP1 170653Z 18009KT 25/16 A3004 RMK A01 T02540160  RH  056%=      5-min Rain = 0
KVP1 170654Z 18009KT 25/16 A3003 RMK A01 T02540161  RH  056%=      5-min Rain = 0
KVP1 170655Z 18009KT 25/16 A3003 RMK A01 T02540160  RH  056%=      5-min Rain = 0
KVP1 170656Z 18009KT 25/16 A3003 RMK A01 T02540160  RH  056%=      5-min Rain = 0
KVP1 170657Z 18009KT 25/16 A3003 RMK A01 T02540160  RH  056%=      5-min Rain = 0
KVP1 170658Z 18010KT 25/16 A3003 RMK A01 T02540161  RH  056%=      5-min Rain = 0
KVP1 170659Z 18010KT 25/16 A3003 RMK A01 T02540160  RH  056%=      5-min Rain = 0
KVP1 170700Z 18010KT 25/16 A3003 RMK A01 T02540160  RH  056%=      5-min Rain = 0
KVP1 170701Z 18011KT 26/16 A3003 RMK A01 T02550161  RH  056%=      5-min Rain = 0
KVP1 170702Z 18011KT 25/16 A3003 RMK A01 T02540160  RH  056%=      5-min Rain = 0
KVP1 170703Z 17010KT 25/16 A3003 RMK A01 T02540160  RH  056%=      5-min Rain = 0
KVP1 170704Z 17010KT 25/16 A3003 RMK A01 T02540160  RH  056%=      5-min Rain = 0
KVP1 170705Z 17011KT 25/16 A3003 RMK A01 T02540161  RH  056%=      5-min Rain = 0
KVP1 170706Z 17011KT 25/16 A3003 RMK A01 T02540160  RH  056%=      5-min Rain = 0
KVP1 170707Z 18011KT 25/16 A3003 RMK A01 T02540160  RH  056%=      5-min Rain = 0
KVP1 170708Z 17010KT 25/16 A3003 RMK A01 T02540160  RH  056%=      5-min Rain = 0
KVP1 170709Z 17010KT 25/16 A3003 RMK A01 T02540161  RH  056%=      5-min Rain = 0
KVP1 170710Z 17012KT 25/16 A3003 RMK A01 T02540161  RH  056%=      5-min Rain = 0
KVP1 170711Z 17011KT 26/16 A3003 RMK A01 T02550161  RH  056%=      5-min Rain = 0
KVP1 170712Z 17011KT 26/16 A3003 RMK A01 T02550161  RH  056%=      5-min Rain = 0
KVP1 170713Z 17011KT 26/16 A3003 RMK A01 T02550161  RH  056%=      5-min Rain = 0
KVP1 170714Z 18010KT 26/16 A3003 RMK A01 T02550161  RH  056%=      5-min Rain = 0
KVP1 170715Z 17011KT 26/16 A3003 RMK A01 T02550161  RH  056%=      5-min Rain = 0
KVP1 170716Z 17011KT 26/16 A3003 RMK A01 T02550161  RH  056%=      5-min Rain = 0
KVP1 170717Z 18011KT 26/16 A3003 RMK A01 T02550161  RH  056%=      5-min Rain = 0
KVP1 170718Z 17011KT 25/16 A3003 RMK A01 T02540161  RH  056%=      5-min Rain = 0
KVP1 170719Z 18012KT 25/16 A3003 RMK A01 T02540162  RH  056%=      5-min Rain = 0
KVP1 170720Z 17011KT 25/16 A3003 RMK A01 T02540162  RH  056%=      5-min Rain = 0
KVP1 170721Z 17011KT 25/16 A3003 RMK A01 T02540162  RH  056%=      5-min Rain = 0
KVP1 170722Z 18011KT 25/16 A3003 RMK A01 T02540162  RH  057%=      5-min Rain = 0
KVP1 170723Z 18011KT 25/16 A3003 RMK A01 T02540162  RH  057%=      5-min Rain = 0
KVP1 170724Z 17011KT 25/16 A3003 RMK A01 T02540162  RH  057%=      5-min Rain = 0
KVP1 170725Z 17010KT 26/16 A3003 RMK A01 T02550162  RH  056%=      5-min Rain = 0
KVP1 170726Z 17011KT 26/16 A3003 RMK A01 T02550162  RH  056%=      5-min Rain = 0
KVP1 170727Z 17011KT 26/16 A3003 RMK A01 T02550162  RH  057%=      5-min Rain = 0
KVP1 170728Z 18010KT 26/16 A3003 RMK A01 T02550162  RH  057%=      5-min Rain = 0
KVP1 170729Z 17009KT 26/16 A3003 RMK A01 T02550162  RH  057%=      5-min Rain = 0
KVP1 170730Z 18011KT 25/16 A3003 RMK A01 T02540162  RH  057%=      5-min Rain = 0
KVP1 170731Z 18010KT 25/16 A3003 RMK A01 T02540162  RH  057%=      5-min Rain = 0
KVP1 170732Z 18010KT 25/16 A3003 RMK A01 T02540162  RH  057%=      5-min Rain = 0
KVP1 170733Z 18011KT 25/16 A3003 RMK A01 T02540163  RH  057%=      5-min Rain = 0
KVP1 170734Z 17010KT 25/16 A3003 RMK A01 T02540163  RH  057%=      5-min Rain = 0
KVP1 170735Z 18011KT 25/16 A3003 RMK A01 T02540162  RH  057%=      5-min Rain = 0
KVP1 170736Z 17011KT 25/16 A3003 RMK A01 T02540162  RH  057%=      5-min Rain = 0
KVP1 170737Z 17010KT 26/16 A3003 RMK A01 T02550163  RH  057%=      5-min Rain = 0
KVP1 170738Z 17010KT 26/16 A3003 RMK A01 T02550162  RH  057%=      5-min Rain = 0
KVP1 170739Z 17010KT 26/16 A3003 RMK A01 T02550162  RH  057%=      5-min Rain = 0
KVP1 170740Z 18011KT 26/16 A3003 RMK A01 T02550162  RH  057%=      5-min Rain = 0
KVP1 170741Z 17010KT 26/16 A3003 RMK A01 T02550162  RH  057%=      5-min Rain = 0
KVP1 170742Z 18010KT 26/16 A3003 RMK A01 T02550163  RH  057%=      5-min Rain = 0
KVP1 170743Z 18009KT 26/16 A3003 RMK A01 T02550163  RH  057%=      5-min Rain = 0
KVP1 170744Z 18010KT 26/16 A3003 RMK A01 T02550163  RH  057%=      5-min Rain = 0
KVP1 170745Z 18010KT 26/16 A3003 RMK A01 T02550163  RH  057%=      5-min Rain = 0
KVP1 170746Z 18009KT 26/16 A3003 RMK A01 T02550163  RH  057%=      5-min Rain = 0
KVP1 170747Z 18009KT 25/16 A3003 RMK A01 T02540163  RH  057%=      5-min Rain = 0
KVP1 170748Z 18009KT 25/16 A3003 RMK A01 T02540163  RH  057%=      5-min Rain = 0
KVP1 170749Z 18010KT 25/16 A3003 RMK A01 T02540163  RH  057%=      5-min Rain = 0
KVP1 170750Z 18009KT 25/16 A3003 RMK A01 T02540163  RH  057%=      5-min Rain = 0
KVP1 170751Z 18009KT 25/16 A3003 RMK A01 T02530163  RH  057%=      5-min Rain = 0
KVP1 170752Z 19008KT 25/16 A3004 RMK A01 T02530163  RH  057%=      5-min Rain = 0
KVP1 170753Z 18008KT 25/16 A3004 RMK A01 T02530163  RH  058%=      5-min Rain = 0
KVP1 170754Z 18009KT 25/16 A3004 RMK A01 T02530164  RH  058%=      5-min Rain = 0
KVP1 170755Z 19008KT 25/16 A3004 RMK A01 T02530164  RH  058%=      5-min Rain = 0
KVP1 170756Z 19009KT 25/16 A3004 RMK A01 T02530164  RH  058%=      5-min Rain = 0
KVP1 170757Z 18009KT 25/16 A3004 RMK A01 T02530163  RH  057%=      5-min Rain = 0
KVP1 170758Z 18008KT 25/16 A3004 RMK A01 T02530163  RH  057%=      5-min Rain = 0
KVP1 170759Z 19009KT 25/16 A3004 RMK A01 T02540163  RH  057%=      5-min Rain = 0
KVP1 170800Z 19008KT 25/16 A3004 RMK A01 T02540163  RH  057%=      5-min Rain = 0
KVP1 170801Z 19007KT 25/16 A3004 RMK A01 T02530163  RH  057%=      5-min Rain = 0
KVP1 170802Z 19008KT 25/16 A3004 RMK A01 T02530163  RH  058%=      5-min Rain = 0
KVP1 170803Z 20007KT 25/16 A3004 RMK A01 T02520163  RH  058%=      5-min Rain = 0
KVP1 170804Z 20007KT 25/16 A3004 RMK A01 T02520163  RH  058%=      5-min Rain = 0
KVP1 170805Z 20007KT 25/16 A3004 RMK A01 T02510163  RH  058%=      5-min Rain = 0
KVP1 170806Z 21008KT 25/16 A3004 RMK A01 T02510163  RH  058%=      5-min Rain = 0
KVP1 170807Z 20008KT 25/16 A3004 RMK A01 T02510163  RH  058%=      5-min Rain = 0
KVP1 170808Z 21008KT 25/16 A3004 RMK A01 T02510163  RH  058%=      5-min Rain = 0
KVP1 170809Z 21008KT 25/16 A3004 RMK A01 T02500163  RH  058%=      5-min Rain = 0
KVP1 170810Z 21007KT 25/16 A3004 RMK A01 T02500163  RH  059%=      5-min Rain = 0
KVP1 170811Z 21008KT 25/16 A3004 RMK A01 T02500163  RH  059%=      5-min Rain = 0
KVP1 170812Z 21008KT 25/16 A3004 RMK A01 T02490163  RH  059%=      5-min Rain = 0
KVP1 170813Z 21007KT 25/16 A3004 RMK A01 T02480164  RH  059%=      5-min Rain = 0
KVP1 170814Z 21007KT 25/16 A3004 RMK A01 T02480164  RH  060%=      5-min Rain = 0
KVP1 170815Z 20009KT 25/16 A3004 RMK A01 T02470164  RH  060%=      5-min Rain = 0
KVP1 170816Z 20008KT 25/16 A3003 RMK A01 T02470163  RH  060%=      5-min Rain = 0
KVP1 170817Z 20009KT 25/16 A3003 RMK A01 T02470163  RH  060%=      5-min Rain = 0
KVP1 170818Z 19011KT 25/16 A3003 RMK A01 T02470163  RH  060%=      5-min Rain = 0
KVP1 170819Z 19009KT 25/16 A3003 RMK A01 T02470163  RH  059%=      5-min Rain = 0
KVP1 170820Z 19010KT 25/16 A3003 RMK A01 T02480164  RH  059%=      5-min Rain = 0
KVP1 170821Z 19010KT 25/16 A3003 RMK A01 T02480164  RH  059%=      5-min Rain = 0
KVP1 170822Z 19009KT 25/16 A3003 RMK A01 T02480164  RH  059%=      5-min Rain = 0
KVP1 170823Z 19010KT 25/16 A3003 RMK A01 T02480164  RH  059%=      5-min Rain = 0
KVP1 170824Z 19009KT 25/16 A3003 RMK A01 T02480164  RH  059%=      5-min Rain = 0
KVP1 170825Z 20009KT 25/16 A3003 RMK A01 T02480164  RH  060%=      5-min Rain = 0
KVP1 170826Z 20009KT 25/16 A3003 RMK A01 T02470164  RH  060%=      5-min Rain = 0
KVP1 170827Z 20008KT 25/16 A3003 RMK A01 T02470164  RH  060%=      5-min Rain = 0
KVP1 170828Z 20009KT 25/16 A3003 RMK A01 T02470164  RH  060%=      5-min Rain = 0
KVP1 170829Z 20009KT 25/16 A3003 RMK A01 T02460164  RH  060%=      5-min Rain = 0
KVP1 170830Z 20010KT 25/16 A3003 RMK A01 T02460164  RH  060%=      5-min Rain = 0
KVP1 170831Z 20010KT 25/16 A3003 RMK A01 T02470164  RH  060%=      5-min Rain = 0
KVP1 170832Z 20009KT 25/16 A3003 RMK A01 T02470164  RH  060%=      5-min Rain = 0
KVP1 170833Z 20009KT 25/16 A3003 RMK A01 T02470164  RH  060%=      5-min Rain = 0
KVP1 170834Z 21009KT 25/16 A3003 RMK A01 T02470164  RH  060%=      5-min Rain = 0
KVP1 170835Z 20010KT 25/16 A3003 RMK A01 T02460164  RH  060%=      5-min Rain = 0
KVP1 170836Z 20009KT 25/16 A3003 RMK A01 T02460164  RH  060%=      5-min Rain = 0
KVP1 170837Z 20010KT 25/16 A3003 RMK A01 T02460164  RH  060%=      5-min Rain = 0
KVP1 170838Z 20009KT 25/16 A3003 RMK A01 T02460164  RH  060%=      5-min Rain = 0
KVP1 170839Z 20009KT 25/16 A3003 RMK A01 T02460164  RH  060%=      5-min Rain = 0
KVP1 170840Z 20009KT 25/16 A3003 RMK A01 T02460164  RH  060%=      5-min Rain = 0
KVP1 170841Z 20009KT 25/16 A3003 RMK A01 T02460164  RH  060%=      5-min Rain = 0
KVP1 170842Z 20009KT 25/16 A3003 RMK A01 T02460164  RH  060%=      5-min Rain = 0
KVP1 170843Z 20009KT 25/16 A3003 RMK A01 T02460164  RH  061%=      5-min Rain = 0
KVP1 170844Z 20009KT 25/17 A3003 RMK A01 T02450165  RH  061%=      5-min Rain = 0
KVP1 170845Z 20010KT 25/17 A3003 RMK A01 T02460165  RH  061%=      5-min Rain = 0
KVP1 170846Z 20009KT 25/17 A3003 RMK A01 T02460165  RH  061%=      5-min Rain = 0
KVP1 170847Z 20009KT 25/17 A3003 RMK A01 T02460165  RH  061%=      5-min Rain = 0
KVP1 170848Z 19010KT 25/17 A3003 RMK A01 T02460165  RH  061%=      5-min Rain = 0
KVP1 170849Z 20011KT 25/17 A3003 RMK A01 T02460165  RH  061%=      5-min Rain = 0
KVP1 170850Z 20009KT 25/16 A3003 RMK A01 T02460164  RH  060%=      5-min Rain = 0
KVP1 170851Z 20009KT 25/17 A3003 RMK A01 T02460165  RH  060%=      5-min Rain = 0
KVP1 170852Z 20009KT 25/17 A3003 RMK A01 T02470165  RH  060%=      5-min Rain = 0
KVP1 170853Z 20009KT 25/17 A3003 RMK A01 T02460165  RH  060%=      5-min Rain = 0
KVP1 170854Z 20009KT 25/17 A3003 RMK A01 T02460165  RH  061%=      5-min Rain = 0
KVP1 170855Z 20009KT 25/17 A3003 RMK A01 T02460165  RH  061%=      5-min Rain = 0
KVP1 170856Z 20009KT 25/17 A3003 RMK A01 T02460165  RH  061%=      5-min Rain = 0
KVP1 170857Z 19010KT 25/17 A3003 RMK A01 T02460165  RH  061%=      5-min Rain = 0
KVP1 170858Z 19009KT 25/17 A3003 RMK A01 T02450165  RH  061%=      5-min Rain = 0
KVP1 170859Z 20009KT 25/17 A3003 RMK A01 T02450165  RH  061%=      5-min Rain = 0
KVP1 170900Z 20009KT 25/17 A3003 RMK A01 T02450165  RH  061%=      5-min Rain = 0
KVP1 170901Z 20008KT 25/17 A3003 RMK A01 T02450165  RH  061%=      5-min Rain = 0
KVP1 170902Z 19009KT 25/17 A3003 RMK A01 T02450165  RH  061%=      5-min Rain = 0
KVP1 170903Z 20009KT 25/17 A3003 RMK A01 T02450165  RH  061%=      5-min Rain = 0
KVP1 170904Z 19009KT 25/17 A3003 RMK A01 T02450165  RH  061%=      5-min Rain = 0
KVP1 170905Z 19008KT 24/17 A3003 RMK A01 T02440165  RH  061%=      5-min Rain = 0
KVP1 170906Z 20008KT 24/17 A3003 RMK A01 T02440166  RH  062%=      5-min Rain = 0
KVP1 170907Z 19008KT 24/17 A3003 RMK A01 T02440166  RH  062%=      5-min Rain = 0
KVP1 170908Z 19009KT 24/17 A3003 RMK A01 T02430166  RH  062%=      5-min Rain = 0
KVP1 170909Z 19008KT 24/17 A3003 RMK A01 T02430166  RH  062%=      5-min Rain = 0
KVP1 170910Z 19007KT 24/17 A3003 RMK A01 T02430166  RH  062%=      5-min Rain = 0
KVP1 170911Z 19008KT 24/17 A3003 RMK A01 T02430166  RH  062%=      5-min Rain = 0
KVP1 170912Z 19008KT 24/17 A3003 RMK A01 T02430166  RH  062%=      5-min Rain = 0
KVP1 170913Z 19008KT 24/17 A3003 RMK A01 T02420166  RH  062%=      5-min Rain = 0
KVP1 170914Z 18008KT 24/17 A3003 RMK A01 T02420166  RH  062%=      5-min Rain = 0
KVP1 170915Z 18008KT 24/17 A3003 RMK A01 T02420166  RH  063%=      5-min Rain = 0
KVP1 170916Z 18008KT 24/17 A3003 RMK A01 T02420166  RH  063%=      5-min Rain = 0
KVP1 170917Z 18008KT 24/17 A3003 RMK A01 T02410166  RH  063%=      5-min Rain = 0
KVP1 170918Z 19008KT 24/17 A3003 RMK A01 T02410166  RH  063%=      5-min Rain = 0
KVP1 170919Z 18008KT 24/17 A3003 RMK A01 T02410166  RH  063%=      5-min Rain = 0
KVP1 170920Z 19008KT 24/17 A3003 RMK A01 T02400166  RH  063%=      5-min Rain = 0
KVP1 170921Z 19007KT 24/17 A3003 RMK A01 T02400165  RH  063%=      5-min Rain = 0
KVP1 170922Z 19008KT 24/17 A3003 RMK A01 T02400166  RH  063%=      5-min Rain = 0
KVP1 170923Z 20008KT 24/17 A3003 RMK A01 T02400166  RH  063%=      5-min Rain = 0
KVP1 170924Z 19008KT 24/17 A3003 RMK A01 T02400166  RH  063%=      5-min Rain = 0
KVP1 170925Z 20008KT 24/17 A3003 RMK A01 T02400166  RH  063%=      5-min Rain = 0
KVP1 170926Z 20008KT 24/17 A3003 RMK A01 T02400166  RH  063%=      5-min Rain = 0
KVP1 170927Z 20008KT 24/17 A3003 RMK A01 T02400166  RH  063%=      5-min Rain = 0
KVP1 170928Z 20008KT 24/17 A3003 RMK A01 T02400166  RH  063%=      5-min Rain = 0
KVP1 170929Z 19008KT 24/17 A3003 RMK A01 T02390166  RH  063%=      5-min Rain = 0
KVP1 170930Z 19008KT 24/17 A3003 RMK A01 T02390166  RH  064%=      5-min Rain = 0
KVP1 170931Z 20009KT 24/17 A3003 RMK A01 T02390166  RH  064%=      5-min Rain = 0
KVP1 170932Z 19008KT 24/17 A3003 RMK A01 T02390166  RH  064%=      5-min Rain = 0
KVP1 170933Z 19008KT 24/17 A3003 RMK A01 T02380166  RH  064%=      5-min Rain = 0
KVP1 170934Z 19009KT 24/17 A3003 RMK A01 T02380166  RH  064%=      5-min Rain = 0
KVP1 170935Z 19009KT 24/17 A3003 RMK A01 T02390166  RH  064%=      5-min Rain = 0
KVP1 170936Z 19009KT 24/17 A3003 RMK A01 T02380166  RH  064%=      5-min Rain = 0
KVP1 170937Z 19009KT 24/17 A3003 RMK A01 T02380166  RH  064%=      5-min Rain = 0
KVP1 170938Z 19008KT 24/17 A3003 RMK A01 T02390166  RH  064%=      5-min Rain = 0
KVP1 170939Z 19008KT 24/17 A3003 RMK A01 T02380166  RH  064%=      5-min Rain = 0
KVP1 170940Z 19009KT 24/17 A3003 RMK A01 T02380166  RH  064%=      5-min Rain = 0
KVP1 170941Z 19009KT 24/17 A3003 RMK A01 T02380166  RH  064%=      5-min Rain = 0
KVP1 170942Z 19009KT 24/17 A3003 RMK A01 T02370166  RH  064%=      5-min Rain = 0
KVP1 170943Z 20008KT 24/17 A3003 RMK A01 T02370166  RH  064%=      5-min Rain = 0
KVP1 170944Z 19008KT 24/17 A3003 RMK A01 T02380166  RH  064%=      5-min Rain = 0
KVP1 170945Z 19009KT 24/17 A3003 RMK A01 T02370166  RH  064%=      5-min Rain = 0
KVP1 170946Z 20009KT 24/17 A3003 RMK A01 T02370166  RH  064%=      5-min Rain = 0
KVP1 170947Z 19009KT 24/17 A3003 RMK A01 T02370166  RH  064%=      5-min Rain = 0
KVP1 170948Z 20009KT 24/17 A3003 RMK A01 T02370166  RH  064%=      5-min Rain = 0
KVP1 170949Z 20009KT 24/17 A3003 RMK A01 T02370166  RH  065%=      5-min Rain = 0
KVP1 170950Z 20009KT 24/17 A3003 RMK A01 T02370167  RH  065%=      5-min Rain = 0
KVP1 170951Z 20009KT 24/17 A3003 RMK A01 T02370166  RH  065%=      5-min Rain = 0
KVP1 170952Z 20009KT 24/17 A3003 RMK A01 T02370167  RH  065%=      5-min Rain = 0
KVP1 170953Z 19009KT 24/17 A3003 RMK A01 T02370167  RH  065%=      5-min Rain = 0
KVP1 170954Z 20009KT 24/17 A3003 RMK A01 T02360167  RH  065%=      5-min Rain = 0
KVP1 170955Z 20009KT 24/17 A3003 RMK A01 T02360167  RH  065%=      5-min Rain = 0
KVP1 170956Z 20009KT 24/17 A3003 RMK A01 T02360167  RH  065%=      5-min Rain = 0
KVP1 170957Z 19009KT 24/17 A3003 RMK A01 T02360166  RH  065%=      5-min Rain = 0
KVP1 170958Z 19009KT 24/17 A3003 RMK A01 T02360167  RH  065%=      5-min Rain = 0
KVP1 170959Z 19009KT 24/17 A3003 RMK A01 T02350167  RH  065%=      5-min Rain = 0
KVP1 171000Z 19009KT 24/17 A3003 RMK A01 T02360167  RH  065%=      5-min Rain = 0
KVP1 171001Z 19009KT 24/17 A3003 RMK A01 T02350167  RH  065%=      5-min Rain = 0
KVP1 171002Z 19009KT 24/17 A3003 RMK A01 T02350167  RH  066%=      5-min Rain = 0
KVP1 171003Z 19009KT 24/17 A3003 RMK A01 T02350167  RH  066%=      5-min Rain = 0
KVP1 171004Z 19009KT 24/17 A3003 RMK A01 T02350167  RH  066%=      5-min Rain = 0
KVP1 171005Z 19009KT 24/17 A3003 RMK A01 T02350167  RH  066%=      5-min Rain = 0
KVP1 171006Z 19009KT 24/17 A3003 RMK A01 T02350167  RH  066%=      5-min Rain = 0
KVP1 171007Z 19009KT 23/17 A3003 RMK A01 T02340167  RH  066%=      5-min Rain = 0
KVP1 171008Z 19008KT 23/17 A3003 RMK A01 T02340167  RH  066%=      5-min Rain = 0
KVP1 171009Z 19008KT 23/17 A3003 RMK A01 T02340167  RH  066%=      5-min Rain = 0
KVP1 171010Z 20009KT 23/17 A3003 RMK A01 T02340167  RH  066%=      5-min Rain = 0
KVP1 171011Z 19008KT 23/17 A3003 RMK A01 T02340167  RH  066%=      5-min Rain = 0
KVP1 171012Z 19008KT 23/17 A3003 RMK A01 T02340167  RH  066%=      5-min Rain = 0
KVP1 171013Z 19009KT 23/17 A3003 RMK A01 T02340167  RH  066%=      5-min Rain = 0
KVP1 171014Z 19009KT 23/17 A3003 RMK A01 T02330167  RH  066%=      5-min Rain = 0
KVP1 171015Z 19009KT 23/17 A3003 RMK A01 T02330167  RH  066%=      5-min Rain = 0
KVP1 171016Z 19008KT 23/17 A3003 RMK A01 T02330167  RH  066%=      5-min Rain = 0
KVP1 171017Z 19008KT 23/17 A3003 RMK A01 T02330167  RH  067%=      5-min Rain = 0
KVP1 171018Z 19009KT 23/17 A3003 RMK A01 T02320167  RH  067%=      5-min Rain = 0
KVP1 171019Z 19009KT 23/17 A3003 RMK A01 T02320167  RH  067%=      5-min Rain = 0
KVP1 171020Z 19009KT 23/17 A3003 RMK A01 T02320167  RH  067%=      5-min Rain = 0
KVP1 171021Z 19009KT 23/17 A3003 RMK A01 T02320167  RH  067%=      5-min Rain = 0
KVP1 171022Z 19009KT 23/17 A3003 RMK A01 T02320167  RH  067%=      5-min Rain = 0
KVP1 171023Z 20009KT 23/17 A3003 RMK A01 T02330167  RH  067%=      5-min Rain = 0
KVP1 171024Z 20009KT 23/17 A3003 RMK A01 T02330167  RH  067%=      5-min Rain = 0
KVP1 171025Z 19008KT 23/17 A3003 RMK A01 T02320167  RH  067%=      5-min Rain = 0
KVP1 171026Z 19009KT 23/17 A3003 RMK A01 T02320168  RH  067%=      5-min Rain = 0
KVP1 171027Z 19009KT 23/17 A3003 RMK A01 T02320167  RH  067%=      5-min Rain = 0
KVP1 171028Z 19010KT 23/17 A3003 RMK A01 T02320167  RH  067%=      5-min Rain = 0
KVP1 171029Z 20009KT 23/17 A3003 RMK A01 T02320168  RH  067%=      5-min Rain = 0
KVP1 171030Z 20009KT 23/17 A3003 RMK A01 T02320167  RH  067%=      5-min Rain = 0
KVP1 171031Z 20009KT 23/17 A3003 RMK A01 T02330168  RH  067%=      5-min Rain = 0
KVP1 171032Z 20010KT 23/17 A3003 RMK A01 T02320167  RH  067%=      5-min Rain = 0
KVP1 171033Z 20009KT 23/17 A3003 RMK A01 T02320167  RH  067%=      5-min Rain = 0
KVP1 171034Z 20009KT 23/17 A3003 RMK A01 T02320167  RH  067%=      5-min Rain = 0
KVP1 171035Z 20009KT 23/17 A3003 RMK A01 T02320168  RH  067%=      5-min Rain = 0
KVP1 171036Z 20010KT 23/17 A3003 RMK A01 T02320168  RH  067%=      5-min Rain = 0
KVP1 171037Z 20010KT 23/17 A3003 RMK A01 T02330168  RH  067%=      5-min Rain = 0
KVP1 171038Z 20010KT 23/17 A3003 RMK A01 T02330168  RH  067%=      5-min Rain = 0
KVP1 171039Z 21009KT 23/17 A3003 RMK A01 T02330168  RH  067%=      5-min Rain = 0
KVP1 171040Z 21010KT 23/17 A3003 RMK A01 T02320168  RH  067%=      5-min Rain = 0
KVP1 171041Z 21009KT 23/17 A3003 RMK A01 T02320168  RH  067%=      5-min Rain = 0
KVP1 171042Z 21010KT 23/17 A3003 RMK A01 T02320169  RH  068%=      5-min Rain = 0
KVP1 171043Z 20010KT 23/17 A3003 RMK A01 T02320169  RH  068%=      5-min Rain = 0
KVP1 171044Z 20010KT 23/17 A3003 RMK A01 T02320169  RH  068%=      5-min Rain = 0
KVP1 171045Z 20009KT 23/17 A3003 RMK A01 T02320168  RH  068%=      5-min Rain = 0
KVP1 171046Z 20009KT 23/17 A3003 RMK A01 T02320168  RH  068%=      5-min Rain = 0
KVP1 171047Z 20009KT 23/17 A3003 RMK A01 T02320169  RH  067%=      5-min Rain = 0
KVP1 171048Z 20009KT 23/17 A3003 RMK A01 T02320168  RH  067%=      5-min Rain = 0
KVP1 171049Z 20009KT 23/17 A3003 RMK A01 T02320169  RH  068%=      5-min Rain = 0
KVP1 171050Z 20009KT 23/17 A3003 RMK A01 T02320169  RH  068%=      5-min Rain = 0
KVP1 171051Z 20008KT 23/17 A3003 RMK A01 T02320169  RH  068%=      5-min Rain = 0
KVP1 171052Z 20008KT 23/17 A3003 RMK A01 T02310169  RH  068%=      5-min Rain = 0
KVP1 171053Z 20008KT 23/17 A3003 RMK A01 T02310169  RH  068%=      5-min Rain = 0
KVP1 171054Z 20009KT 23/17 A3003 RMK A01 T02310169  RH  068%=      5-min Rain = 0
KVP1 171055Z 20009KT 23/17 A3003 RMK A01 T02310168  RH  068%=      5-min Rain = 0
KVP1 171056Z 20008KT 23/17 A3003 RMK A01 T02310168  RH  068%=      5-min Rain = 0
KVP1 171057Z 20009KT 23/17 A3003 RMK A01 T02320169  RH  068%=      5-min Rain = 0
KVP1 171058Z 20010KT 23/17 A3003 RMK A01 T02320169  RH  068%=      5-min Rain = 0
KVP1 171059Z 20009KT 23/17 A3003 RMK A01 T02320169  RH  067%=      5-min Rain = 0
KVP1 171100Z 21009KT 23/17 A3003 RMK A01 T02330169  RH  067%=      5-min Rain = 0
KVP1 171101Z 21010KT 23/17 A3003 RMK A01 T02330169  RH  067%=      5-min Rain = 0
KVP1 171102Z 21009KT 23/17 A3003 RMK A01 T02330169  RH  067%=      5-min Rain = 0
KVP1 171103Z 21008KT 23/17 A3003 RMK A01 T02340169  RH  067%=      5-min Rain = 0
KVP1 171104Z 21009KT 23/17 A3003 RMK A01 T02340169  RH  067%=      5-min Rain = 0
KVP1 171105Z 21008KT 23/17 A3003 RMK A01 T02330169  RH  067%=      5-min Rain = 0
KVP1 171106Z 20009KT 23/17 A3003 RMK A01 T02330169  RH  067%=      5-min Rain = 0
KVP1 171107Z 21009KT 23/17 A3003 RMK A01 T02330169  RH  067%=      5-min Rain = 0
KVP1 171108Z 21009KT 23/17 A3003 RMK A01 T02330169  RH  067%=      5-min Rain = 0
KVP1 171109Z 21009KT 23/17 A3003 RMK A01 T02330169  RH  067%=      5-min Rain = 0
KVP1 171110Z 21008KT 23/17 A3003 RMK A01 T02330169  RH  067%=      5-min Rain = 0
KVP1 171111Z 21008KT 23/17 A3003 RMK A01 T02330170  RH  067%=      5-min Rain = 0
KVP1 171112Z 21008KT 23/17 A3003 RMK A01 T02330170  RH  068%=      5-min Rain = 0
KVP1 171113Z 21008KT 23/17 A3003 RMK A01 T02320170  RH  068%=      5-min Rain = 0
KVP1 171114Z 21009KT 23/17 A3003 RMK A01 T02320170  RH  068%=      5-min Rain = 0
KVP1 171115Z 20009KT 23/17 A3003 RMK A01 T02320170  RH  068%=      5-min Rain = 0
KVP1 171116Z 20009KT 23/17 A3003 RMK A01 T02330170  RH  068%=      5-min Rain = 0
KVP1 171117Z 20008KT 23/17 A3003 RMK A01 T02330170  RH  068%=      5-min Rain = 0
KVP1 171118Z 20009KT 23/17 A3003 RMK A01 T02320170  RH  068%=      5-min Rain = 0
KVP1 171119Z 20009KT 23/17 A3003 RMK A01 T02320170  RH  068%=      5-min Rain = 0
KVP1 171120Z 20009KT 23/17 A3003 RMK A01 T02320170  RH  068%=      5-min Rain = 0
KVP1 171121Z 20009KT 23/17 A3003 RMK A01 T02320170  RH  068%=      5-min Rain = 0
KVP1 171122Z 20009KT 23/17 A3003 RMK A01 T02320170  RH  068%=      5-min Rain = 0
KVP1 171123Z 20009KT 23/17 A3003 RMK A01 T02310170  RH  068%=      5-min Rain = 0
KVP1 171124Z 20009KT 23/17 A3003 RMK A01 T02310170  RH  068%=      5-min Rain = 0
KVP1 171125Z 20009KT 23/17 A3003 RMK A01 T02320170  RH  068%=      5-min Rain = 0
KVP1 171126Z 20009KT 23/17 A3003 RMK A01 T02310170  RH  068%=      5-min Rain = 0
KVP1 171127Z 20009KT 23/17 A3003 RMK A01 T02310170  RH  068%=      5-min Rain = 0
KVP1 171128Z 20009KT 23/17 A3003 RMK A01 T02310170  RH  068%=      5-min Rain = 0
KVP1 171129Z 20009KT 23/17 A3003 RMK A01 T02320170  RH  068%=      5-min Rain = 0
KVP1 171130Z 20010KT 23/17 A3003 RMK A01 T02320170  RH  068%=      5-min Rain = 0
KVP1 171131Z 20010KT 23/17 A3003 RMK A01 T02310170  RH  068%=      5-min Rain = 0
KVP1 171132Z 20009KT 23/17 A3003 RMK A01 T02300170  RH  069%=      5-min Rain = 0
KVP1 171133Z 20009KT 23/17 A3003 RMK A01 T02300170  RH  069%=      5-min Rain = 0
KVP1 171134Z 20010KT 23/17 A3003 RMK A01 T02300170  RH  069%=      5-min Rain = 0
KVP1 171135Z 20009KT 23/17 A3003 RMK A01 T02300170  RH  069%=      5-min Rain = 0
KVP1 171136Z 20009KT 23/17 A3003 RMK A01 T02300170  RH  069%=      5-min Rain = 0
KVP1 171137Z 20009KT 23/17 A3003 RMK A01 T02300170  RH  069%=      5-min Rain = 0
KVP1 171138Z 20008KT 23/17 A3003 RMK A01 T02290170  RH  069%=      5-min Rain = 0
KVP1 171139Z 20009KT 23/17 A3003 RMK A01 T02290170  RH  069%=      5-min Rain = 0
KVP1 171140Z 21008KT 23/17 A3003 RMK A01 T02290170  RH  069%=      5-min Rain = 0
KVP1 171141Z 21009KT 23/17 A3003 RMK A01 T02290170  RH  069%=      5-min Rain = 0
KVP1 171142Z 20008KT 23/17 A3003 RMK A01 T02280170  RH  070%=      5-min Rain = 0
KVP1 171143Z 20009KT 23/17 A3003 RMK A01 T02280170  RH  070%=      5-min Rain = 0
KVP1 171144Z 20009KT 23/17 A3004 RMK A01 T02280170  RH  070%=      5-min Rain = 0
KVP1 171145Z 20009KT 23/17 A3004 RMK A01 T02280170  RH  070%=      5-min Rain = 0
KVP1 171146Z 20009KT 23/17 A3004 RMK A01 T02280170  RH  070%=      5-min Rain = 0
KVP1 171147Z 20009KT 23/17 A3004 RMK A01 T02270170  RH  070%=      5-min Rain = 0
KVP1 171148Z 20008KT 23/17 A3004 RMK A01 T02270170  RH  070%=      5-min Rain = 0
KVP1 171149Z 20009KT 23/17 A3004 RMK A01 T02270170  RH  070%=      5-min Rain = 0
KVP1 171150Z 20009KT 23/17 A3004 RMK A01 T02260169  RH  070%=      5-min Rain = 0
KVP1 171151Z 20009KT 23/17 A3004 RMK A01 T02260170  RH  070%=      5-min Rain = 0
KVP1 171152Z 20009KT 23/17 A3004 RMK A01 T02260170  RH  070%=      5-min Rain = 0
KVP1 171153Z 20009KT 23/17 A3004 RMK A01 T02270170  RH  070%=      5-min Rain = 0
KVP1 171154Z 20009KT 23/17 A3004 RMK A01 T02260169  RH  070%=      5-min Rain = 0
KVP1 171155Z 20009KT 23/17 A3004 RMK A01 T02260170  RH  070%=      5-min Rain = 0
KVP1 171156Z 20009KT 23/17 A3004 RMK A01 T02260170  RH  070%=      5-min Rain = 0
KVP1 171157Z 19009KT 23/17 A3004 RMK A01 T02260170  RH  070%=      5-min Rain = 0
KVP1 171158Z 19009KT 23/17 A3004 RMK A01 T02260170  RH  071%=      5-min Rain = 0
KVP1 171159Z 20009KT 23/17 A3004 RMK A01 T02260170  RH  071%=      5-min Rain = 0
KVP1 171200Z 20009KT 23/17 A3004 RMK A01 T02260170  RH  071%=      5-min Rain = 0
KVP1 171201Z 19009KT 23/17 A3004 RMK A01 T02260170  RH  071%=      5-min Rain = 0
KVP1 171202Z 19009KT 23/17 A3004 RMK A01 T02250170  RH  071%=      5-min Rain = 0
KVP1 171203Z 20008KT 23/17 A3004 RMK A01 T02250170  RH  071%=      5-min Rain = 0
KVP1 171204Z 20009KT 22/17 A3004 RMK A01 T02240170  RH  071%=      5-min Rain = 0
KVP1 171205Z 20008KT 22/17 A3004 RMK A01 T02240170  RH  071%=      5-min Rain = 0
KVP1 171206Z 20008KT 22/17 A3004 RMK A01 T02240170  RH  071%=      5-min Rain = 0
KVP1 171207Z 20008KT 22/17 A3004 RMK A01 T02240170  RH  071%=      5-min Rain = 0
KVP1 171208Z 20009KT 22/17 A3004 RMK A01 T02240170  RH  071%=      5-min Rain = 0
KVP1 171209Z 20008KT 22/17 A3004 RMK A01 T02240170  RH  071%=      5-min Rain = 0
KVP1 171210Z 20008KT 23/17 A3004 RMK A01 T02250170  RH  071%=      5-min Rain = 0
KVP1 171211Z 20008KT 23/17 A3004 RMK A01 T02250170  RH  071%=      5-min Rain = 0
KVP1 171212Z 20009KT 23/17 A3004 RMK A01 T02250170  RH  071%=      5-min Rain = 0
KVP1 171213Z 20008KT 23/17 A3004 RMK A01 T02260170  RH  071%=      5-min Rain = 0
KVP1 171214Z 20008KT 23/17 A3004 RMK A01 T02260170  RH  071%=      5-min Rain = 0
KVP1 171215Z 20008KT 23/17 A3004 RMK A01 T02260171  RH  071%=      5-min Rain = 0
KVP1 171216Z 20008KT 23/17 A3004 RMK A01 T02260170  RH  071%=      5-min Rain = 0
KVP1 171217Z 20009KT 23/17 A3004 RMK A01 T02270171  RH  071%=      5-min Rain = 0
KVP1 171218Z 20008KT 23/17 A3004 RMK A01 T02270171  RH  070%=      5-min Rain = 0
KVP1 171219Z 20008KT 23/17 A3004 RMK A01 T02270171  RH  070%=      5-min Rain = 0
KVP1 171220Z 21008KT 23/17 A3004 RMK A01 T02280171  RH  070%=      5-min Rain = 0
KVP1 171221Z 21007KT 23/17 A3004 RMK A01 T02280171  RH  070%=      5-min Rain = 0
KVP1 171222Z 21007KT 23/17 A3005 RMK A01 T02290172  RH  070%=      5-min Rain = 0
KVP1 171223Z 21008KT 23/17 A3005 RMK A01 T02280171  RH  070%=      5-min Rain = 0
KVP1 171224Z 22008KT 23/17 A3005 RMK A01 T02290172  RH  070%=      5-min Rain = 0
KVP1 171225Z 21008KT 23/17 A3005 RMK A01 T02290172  RH  070%=      5-min Rain = 0
KVP1 171226Z 21007KT 23/17 A3005 RMK A01 T02290172  RH  070%=      5-min Rain = 0
KVP1 171227Z 21008KT 23/17 A3005 RMK A01 T02300172  RH  070%=      5-min Rain = 0
KVP1 171228Z 21008KT 23/17 A3005 RMK A01 T02300172  RH  070%=      5-min Rain = 0
KVP1 171229Z 21007KT 23/17 A3005 RMK A01 T02310172  RH  070%=      5-min Rain = 0
KVP1 171230Z 21009KT 23/17 A3005 RMK A01 T02310172  RH  070%=      5-min Rain = 0
KVP1 171231Z 21008KT 23/17 A3005 RMK A01 T02310172  RH  069%=      5-min Rain = 0
KVP1 171232Z 21008KT 23/17 A3005 RMK A01 T02320172  RH  069%=      5-min Rain = 0
KVP1 171233Z 21008KT 23/17 A3005 RMK A01 T02320172  RH  069%=      5-min Rain = 0
KVP1 171234Z 21007KT 23/17 A3005 RMK A01 T02330173  RH  069%=      5-min Rain = 0
KVP1 171235Z 21008KT 23/17 A3005 RMK A01 T02330173  RH  069%=      5-min Rain = 0
KVP1 171236Z 21008KT 23/17 A3005 RMK A01 T02340173  RH  069%=      5-min Rain = 0
KVP1 171237Z 21008KT 23/17 A3005 RMK A01 T02340173  RH  069%=      5-min Rain = 0
KVP1 171238Z 21008KT 23/17 A3005 RMK A01 T02340173  RH  068%=      5-min Rain = 0
KVP1 171239Z 21008KT 24/17 A3005 RMK A01 T02350173  RH  068%=      5-min Rain = 0
KVP1 171240Z 20008KT 24/17 A3005 RMK A01 T02350173  RH  068%=      5-min Rain = 0
KVP1 171241Z 20007KT 24/17 A3005 RMK A01 T02350173  RH  068%=      5-min Rain = 0
KVP1 171242Z 20009KT 24/17 A3005 RMK A01 T02360174  RH  068%=      5-min Rain = 0
KVP1 171243Z 20009KT 24/17 A3005 RMK A01 T02360173  RH  068%=      5-min Rain = 0
KVP1 171244Z 20008KT 24/17 A3005 RMK A01 T02370174  RH  068%=      5-min Rain = 0
KVP1 171245Z 20008KT 24/17 A3005 RMK A01 T02370174  RH  068%=      5-min Rain = 0
KVP1 171246Z 19008KT 24/17 A3005 RMK A01 T02380174  RH  068%=      5-min Rain = 0
KVP1 171247Z 20008KT 24/17 A3005 RMK A01 T02380174  RH  067%=      5-min Rain = 0
KVP1 171248Z 20009KT 24/18 A3005 RMK A01 T02390175  RH  067%=      5-min Rain = 0
KVP1 171249Z 20009KT 24/18 A3005 RMK A01 T02390175  RH  067%=      5-min Rain = 0
KVP1 171250Z 19008KT 24/18 A3005 RMK A01 T02390175  RH  067%=      5-min Rain = 0
KVP1 171251Z 19010KT 24/18 A3005 RMK A01 T02400175  RH  067%=      5-min Rain = 0
KVP1 171252Z 20010KT 24/17 A3005 RMK A01 T02400174  RH  067%=      5-min Rain = 0
KVP1 171253Z 20009KT 24/18 A3005 RMK A01 T02400175  RH  067%=      5-min Rain = 0
KVP1 171254Z 20009KT 24/18 A3005 RMK A01 T02410175  RH  067%=      5-min Rain = 0
KVP1 171255Z 20011KT 24/18 A3005 RMK A01 T02420175  RH  066%=      5-min Rain = 0
KVP1 171256Z 20011KT 24/17 A3005 RMK A01 T02420174  RH  066%=      5-min Rain = 0
KVP1 171257Z 20009KT 24/18 A3005 RMK A01 T02420175  RH  066%=      5-min Rain = 0
KVP1 171258Z 20009KT 24/18 A3005 RMK A01 T02430175  RH  066%=      5-min Rain = 0
KVP1 171259Z 20010KT 24/18 A3005 RMK A01 T02430175  RH  066%=      5-min Rain = 0
KVP1 171300Z 20010KT 24/18 A3005 RMK A01 T02430176  RH  066%=      5-min Rain = 0
KVP1 171301Z 20010KT 24/18 A3005 RMK A01 T02440176  RH  066%=      5-min Rain = 0
KVP1 171302Z 21010KT 25/18 A3005 RMK A01 T02450176  RH  065%=      5-min Rain = 0
KVP1 171303Z 20011KT 25/18 A3005 RMK A01 T02450176  RH  065%=      5-min Rain = 0
KVP1 171304Z 20011KT 25/18 A3005 RMK A01 T02460176  RH  065%=      5-min Rain = 0
KVP1 171305Z 20010KT 25/18 A3005 RMK A01 T02460176  RH  065%=      5-min Rain = 0
KVP1 171306Z 20012KT 25/18 A3005 RMK A01 T02470176  RH  065%=      5-min Rain = 0
KVP1 171307Z 20010KT 25/18 A3006 RMK A01 T02470176  RH  065%=      5-min Rain = 0
KVP1 171308Z 20012KT 25/18 A3006 RMK A01 T02470176  RH  064%=      5-min Rain = 0
KVP1 171309Z 20010KT 25/18 A3006 RMK A01 T02480177  RH  065%=      5-min Rain = 0
KVP1 171310Z 20010KT 25/18 A3006 RMK A01 T02490177  RH  064%=      5-min Rain = 0
KVP1 171311Z 20010KT 25/18 A3006 RMK A01 T02500177  RH  064%=      5-min Rain = 0
KVP1 171312Z 20013KT 25/18 A3006 RMK A01 T02500177  RH  064%=      5-min Rain = 0
KVP1 171313Z 20011KT 25/18 A3006 RMK A01 T02510177  RH  064%=      5-min Rain = 0
KVP1 171314Z 20013KT 25/18 A3006 RMK A01 T02510178  RH  064%=      5-min Rain = 0
KVP1 171315Z 20011G16KT 25/18 A3006 RMK A01 T02510177  RH  063%=      5-min Rain = 0
KVP1 171316Z 20010KT 25/18 A3006 RMK A01 T02520178  RH  064%=      5-min Rain = 0
KVP1 171317Z 20010KT 25/18 A3006 RMK A01 T02530179  RH  063%=      5-min Rain = 0
KVP1 171318Z 20011KT 25/18 A3006 RMK A01 T02540179  RH  063%=      5-min Rain = 0
KVP1 171319Z 20013KT 26/18 A3006 RMK A01 T02550179  RH  063%=      5-min Rain = 0
KVP1 171320Z 20012KT 26/18 A3006 RMK A01 T02550179  RH  063%=      5-min Rain = 0
KVP1 171321Z 20011KT 26/18 A3006 RMK A01 T02560179  RH  063%=      5-min Rain = 0
KVP1 171322Z 20012KT 26/18 A3006 RMK A01 T02570180  RH  062%=      5-min Rain = 0
KVP1 171323Z 20013KT 26/18 A3006 RMK A01 T02570180  RH  062%=      5-min Rain = 0
KVP1 171324Z 21012KT 26/18 A3006 RMK A01 T02580180  RH  062%=      5-min Rain = 0
KVP1 171325Z 20011KT 26/18 A3006 RMK A01 T02590180  RH  062%=      5-min Rain = 0
KVP1 171326Z 20014KT 26/18 A3006 RMK A01 T02600181  RH  062%=      5-min Rain = 0
KVP1 171327Z 20015KT 26/18 A3006 RMK A01 T02600180  RH  061%=      5-min Rain = 0
KVP1 171328Z 20016KT 26/18 A3006 RMK A01 T02600180  RH  062%=      5-min Rain = 0
KVP1 171329Z 21016KT 26/18 A3006 RMK A01 T02600180  RH  061%=      5-min Rain = 0
KVP1 171330Z 20016KT 26/18 A3006 RMK A01 T02600180  RH  061%=      5-min Rain = 0
KVP1 171331Z 21016KT 26/18 A3006 RMK A01 T02600181  RH  061%=      5-min Rain = 0
KVP1 171332Z 20012G17KT 26/18 A3006 RMK A01 T02610181  RH  061%=      5-min Rain = 0
KVP1 171333Z 20013KT 26/18 A3006 RMK A01 T02620182  RH  061%=      5-min Rain = 0
KVP1 171334Z 20012KT 26/18 A3006 RMK A01 T02630182  RH  061%=      5-min Rain = 0
KVP1 171335Z 20012KT 27/18 A3006 RMK A01 T02650183  RH  061%=      5-min Rain = 0
KVP1 171336Z 20014G19KT 27/18 A3006 RMK A01 T02660182  RH  060%=      5-min Rain = 0
KVP1 171337Z 20013KT 27/18 A3006 RMK A01 T02660182  RH  060%=      5-min Rain = 0
KVP1 171338Z 20016KT 27/18 A3006 RMK A01 T02650181  RH  060%=      5-min Rain = 0
KVP1 171339Z 21016KT 26/18 A3006 RMK A01 T02640182  RH  060%=      5-min Rain = 0
KVP1 171340Z 21016KT 27/18 A3006 RMK A01 T02650182  RH  060%=      5-min Rain = 0
KVP1 171341Z 21013KT 27/18 A3006 RMK A01 T02660182  RH  060%=      5-min Rain = 0
KVP1 171342Z 21013KT 27/18 A3006 RMK A01 T02670183  RH  060%=      5-min Rain = 0
KVP1 171343Z 20015KT 27/18 A3006 RMK A01 T02680183  RH  060%=      5-min Rain = 0
KVP1 171344Z 20016KT 27/18 A3006 RMK A01 T02680182  RH  059%=      5-min Rain = 0
KVP1 171345Z 20018KT 27/18 A3006 RMK A01 T02680183  RH  059%=      5-min Rain = 0
KVP1 171346Z 21017KT 27/18 A3006 RMK A01 T02680182  RH  059%=      5-min Rain = 0
KVP1 171347Z 21016KT 27/18 A3006 RMK A01 T02680182  RH  059%=      5-min Rain = 0
KVP1 171348Z 20013KT 27/18 A3006 RMK A01 T02680183  RH  059%=      5-min Rain = 0
KVP1 171349Z 20015KT 27/18 A3006 RMK A01 T02690183  RH  059%=      5-min Rain = 0
KVP1 171350Z 21015KT 27/18 A3006 RMK A01 T02700183  RH  059%=      5-min Rain = 0
KVP1 171351Z 20017G23KT 27/18 A3006 RMK A01 T02710182  RH  058%=      5-min Rain = 0
KVP1 171352Z 20018KT 27/18 A3006 RMK A01 T02710182  RH  058%=      5-min Rain = 0
KVP1 171353Z 21019KT 27/18 A3006 RMK A01 T02700182  RH  059%=      5-min Rain = 0
KVP1 171354Z 21015KT 27/18 A3006 RMK A01 T02690182  RH  059%=      5-min Rain = 0
KVP1 171355Z 21015KT 27/18 A3006 RMK A01 T02710183  RH  059%=      5-min Rain = 0
KVP1 171356Z 21018KT 27/18 A3006 RMK A01 T02720182  RH  058%=      5-min Rain = 0
KVP1 171357Z 21019KT 27/18 A3006 RMK A01 T02720183  RH  058%=      5-min Rain = 0
KVP1 171358Z 21016G21KT 27/18 A3006 RMK A01 T02710183  RH  059%=      5-min Rain = 0
KVP1 171359Z 21018G23KT 27/18 A3006 RMK A01 T02710182  RH  058%=      5-min Rain = 0
KVP1 171400Z 21014KT 27/18 A3006 RMK A01 T02720182  RH  058%=      5-min Rain = 0
KVP1 171401Z 21017G22KT 27/18 A3006 RMK A01 T02730183  RH  058%=      5-min Rain = 0
KVP1 171402Z 20017KT 27/18 A3006 RMK A01 T02730183  RH  058%=      5-min Rain = 0
KVP1 171403Z 21014G19KT 27/18 A3006 RMK A01 T02740182  RH  057%=      5-min Rain = 0
KVP1 171404Z 21015G21KT 28/18 A3007 RMK A01 T02750184  RH  057%=      5-min Rain = 0
KVP1 171405Z 21018KT 28/18 A3006 RMK A01 T02770182  RH  056%=      5-min Rain = 0
KVP1 171406Z 21016KT 28/18 A3006 RMK A01 T02760182  RH  057%=      5-min Rain = 0
KVP1 171407Z 22017KT 28/18 A3006 RMK A01 T02750182  RH  057%=      5-min Rain = 0
KVP1 171408Z 21012KT 28/18 A3007 RMK A01 T02760183  RH  057%=      5-min Rain = 0
KVP1 171409Z 20018KT 28/18 A3006 RMK A01 T02780183  RH  056%=      5-min Rain = 0
KVP1 171410Z 20018KT 28/18 A3006 RMK A01 T02780183  RH  056%=      5-min Rain = 0
KVP1 171411Z 20017KT 28/18 A3007 RMK A01 T02770182  RH  056%=      5-min Rain = 0
KVP1 171412Z 20017KT 28/18 A3007 RMK A01 T02770182  RH  056%=      5-min Rain = 0
KVP1 171413Z 20015KT 28/18 A3007 RMK A01 T02770182  RH  056%=      5-min Rain = 0
KVP1 171414Z 21015KT 28/18 A3007 RMK A01 T02790182  RH  056%=      5-min Rain = 0
KVP1 171415Z 20019KT 28/18 A3007 RMK A01 T02800182  RH  055%=      5-min Rain = 0
KVP1 171416Z 20014G19KT 28/18 A3007 RMK A01 T02800182  RH  055%=      5-min Rain = 0
KVP1 171417Z 22019KT 28/18 A3007 RMK A01 T02800182  RH  055%=      5-min Rain = 0
KVP1 171418Z 21015KT 28/18 A3007 RMK A01 T02810182  RH  055%=      5-min Rain = 0
KVP1 171419Z 22018KT 28/18 A3007 RMK A01 T02810181  RH  055%=      5-min Rain = 0
KVP1 171420Z 22017KT 28/18 A3007 RMK A01 T02810181  RH  055%=      5-min Rain = 0
KVP1 171421Z 22014KT 28/18 A3007 RMK A01 T02800181  RH  055%=      5-min Rain = 0
KVP1 171422Z 22020G25KT 28/18 A3007 RMK A01 T02820180  RH  054%=      5-min Rain = 0
KVP1 171423Z 22018KT 28/18 A3007 RMK A01 T02820179  RH  054%=      5-min Rain = 0
KVP1 171424Z 22021KT 28/18 A3007 RMK A01 T02810179  RH  054%=      5-min Rain = 0
KVP1 171425Z 22021KT 28/18 A3007 RMK A01 T02800178  RH  054%=      5-min Rain = 0
KVP1 171426Z 22017G24KT 28/18 A3007 RMK A01 T02790179  RH  054%=      5-min Rain = 0
KVP1 171427Z 21016G22KT 28/18 A3007 RMK A01 T02800179  RH  054%=      5-min Rain = 0
KVP1 171428Z 22017G22KT 28/18 A3007 RMK A01 T02820178  RH  053%=      5-min Rain = 0
KVP1 171429Z 21020KT 28/18 A3007 RMK A01 T02820179  RH  053%=      5-min Rain = 0
KVP1 171430Z 21016KT 28/18 A3007 RMK A01 T02830179  RH  053%=      5-min Rain = 0
KVP1 171431Z 21020KT 28/18 A3007 RMK A01 T02830178  RH  053%=      5-min Rain = 0
KVP1 171432Z 22019KT 28/18 A3007 RMK A01 T02820178  RH  053%=      5-min Rain = 0
KVP1 171433Z 22018KT 28/18 A3007 RMK A01 T02810178  RH  054%=      5-min Rain = 0
KVP1 171434Z 21018KT 28/18 A3007 RMK A01 T02820178  RH  053%=      5-min Rain = 0
KVP1 171435Z 21018G23KT 28/18 A3007 RMK A01 T02830178  RH  053%=      5-min Rain = 0
KVP1 171436Z 21018KT 28/18 A3007 RMK A01 T02830179  RH  053%=      5-min Rain = 0
KVP1 171437Z 21019KT 28/18 A3007 RMK A01 T02840178  RH  053%=      5-min Rain = 0
KVP1 171438Z 20017KT 28/18 A3007 RMK A01 T02830179  RH  053%=      5-min Rain = 0
KVP1 171439Z 20016G21KT 28/18 A3007 RMK A01 T02830179  RH  053%=      5-min Rain = 0
KVP1 171440Z 21019G24KT 29/18 A3007 RMK A01 T02860179  RH  052%=      5-min Rain = 0
KVP1 171441Z 21018KT 29/18 A3007 RMK A01 T02860179  RH  052%=      5-min Rain = 0
KVP1 171442Z 21017KT 29/18 A3007 RMK A01 T02850179  RH  053%=      5-min Rain = 0
KVP1 171443Z 21018KT 28/18 A3007 RMK A01 T02840178  RH  053%=      5-min Rain = 0
KVP1 171444Z 21018KT 29/18 A3007 RMK A01 T02850178  RH  052%=      5-min Rain = 0
KVP1 171445Z 20018KT 29/18 A3007 RMK A01 T02850178  RH  052%=      5-min Rain = 0
KVP1 171446Z 21016KT 29/18 A3007 RMK A01 T02850179  RH  053%=      5-min Rain = 0
KVP1 171447Z 21016G21KT 29/18 A3006 RMK A01 T02860179  RH  052%=      5-min Rain = 0
KVP1 171448Z 21017KT 29/18 A3007 RMK A01 T02870180  RH  052%=      5-min Rain = 0
KVP1 171449Z 22015KT 29/18 A3007 RMK A01 T02870180  RH  052%=      5-min Rain = 0
KVP1 171450Z 20016KT 29/18 A3007 RMK A01 T02900181  RH  052%=      5-min Rain = 0
KVP1 171451Z 21017KT 29/18 A3007 RMK A01 T02910180  RH  051%=      5-min Rain = 0
KVP1 171452Z 21017KT 29/18 A3007 RMK A01 T02900181  RH  052%=      5-min Rain = 0
KVP1 171453Z 21014KT 29/18 A3007 RMK A01 T02880181  RH  052%=      5-min Rain = 0
KVP1 171454Z 22014KT 29/18 A3007 RMK A01 T02890182  RH  052%=      5-min Rain = 0
KVP1 171455Z 21016KT 29/18 A3007 RMK A01 T02920182  RH  052%=      5-min Rain = 0
KVP1 171456Z 20015KT 29/18 A3007 RMK A01 T02930180  RH  051%=      5-min Rain = 0
KVP1 171457Z 20018KT 29/18 A3007 RMK A01 T02930179  RH  050%=      5-min Rain = 0
KVP1 171458Z 20019KT 29/18 A3007 RMK A01 T02930178  RH  050%=      5-min Rain = 0
KVP1 171459Z 20015KT 29/18 A3007 RMK A01 T02920179  RH  051%=      5-min Rain = 0
KVP1 171500Z 21017KT 29/18 A3007 RMK A01 T02920179  RH  051%=      5-min Rain = 0
KVP1 171501Z 21016KT 29/18 A3007 RMK A01 T02910179  RH  051%=      5-min Rain = 0
KVP1 171502Z 20019KT 29/18 A3007 RMK A01 T02910177  RH  050%=      5-min Rain = 0
KVP1 171503Z 20017KT 29/18 A3007 RMK A01 T02920178  RH  050%=      5-min Rain = 0
KVP1 171504Z 21015KT 29/18 A3007 RMK A01 T02920179  RH  051%=      5-min Rain = 0
KVP1 171505Z 21016KT 29/18 A3007 RMK A01 T02920179  RH  051%=      5-min Rain = 0
KVP1 171506Z 21016KT 29/18 A3007 RMK A01 T02940180  RH  050%=      5-min Rain = 0
KVP1 171507Z 21015KT 30/18 A3007 RMK A01 T02960180  RH  050%=      5-min Rain = 0
KVP1 171508Z 21017KT 30/18 A3007 RMK A01 T02960180  RH  050%=      5-min Rain = 0
KVP1 171509Z 21016KT 30/18 A3007 RMK A01 T02950179  RH  050%=      5-min Rain = 0
KVP1 171510Z 21016KT 29/18 A3007 RMK A01 T02940179  RH  050%=      5-min Rain = 0
KVP1 171511Z 21015KT 29/18 A3007 RMK A01 T02940179  RH  050%=      5-min Rain = 0
KVP1 171512Z 20015KT 29/18 A3007 RMK A01 T02940180  RH  050%=      5-min Rain = 0
KVP1 171513Z 21018KT 30/18 A3007 RMK A01 T02950180  RH  050%=      5-min Rain = 0
KVP1 171514Z 20013KT 29/18 A3007 RMK A01 T02940181  RH  051%=      5-min Rain = 0
KVP1 171515Z 20013KT 30/18 A3007 RMK A01 T02950183  RH  051%=      5-min Rain = 0
KVP1 171516Z 20013G18KT 30/18 A3007 RMK A01 T02990183  RH  050%=      5-min Rain = 0
KVP1 171517Z 20018KT 30/18 A3007 RMK A01 T03010182  RH  049%=      5-min Rain = 0
KVP1 171518Z 20016KT 30/18 A3007 RMK A01 T02980181  RH  049%=      5-min Rain = 0
KVP1 171519Z 21016KT 30/18 A3007 RMK A01 T02960180  RH  050%=      5-min Rain = 0
KVP1 171520Z 21017KT 30/18 A3007 RMK A01 T02970180  RH  049%=      5-min Rain = 0
KVP1 171521Z 20015KT 30/18 A3007 RMK A01 T02970179  RH  049%=      5-min Rain = 0
KVP1 171522Z 21014KT 30/18 A3007 RMK A01 T02960181  RH  050%=      5-min Rain = 0
KVP1 171523Z 20015KT 30/18 A3007 RMK A01 T02990182  RH  050%=      5-min Rain = 0
KVP1 171524Z 20014KT 30/18 A3007 RMK A01 T03000182  RH  049%=      5-min Rain = 0
KVP1 171525Z 20016KT 30/18 A3007 RMK A01 T03010181  RH  049%=      5-min Rain = 0
KVP1 171526Z 21017KT 30/18 A3007 RMK A01 T03000181  RH  049%=      5-min Rain = 0
KVP1 171527Z 21017KT 30/18 A3007 RMK A01 T02990181  RH  049%=      5-min Rain = 0
KVP1 171528Z 20013KT 30/18 A3007 RMK A01 T02990182  RH  050%=      5-min Rain = 0
KVP1 171529Z 21013KT 30/18 A3007 RMK A01 T03010182  RH  049%=      5-min Rain = 0
KVP1 171530Z 21014KT 30/18 A3007 RMK A01 T03030182  RH  048%=      5-min Rain = 0
KVP1 171531Z 21012KT 30/18 A3007 RMK A01 T03020183  RH  049%=      5-min Rain = 0
KVP1 171532Z 21015KT 30/18 A3007 RMK A01 T03030184  RH  049%=      5-min Rain = 0
KVP1 171533Z 21013KT 31/18 A3007 RMK A01 T03050183  RH  048%=      5-min Rain = 0
KVP1 171534Z 21015KT 31/19 A3007 RMK A01 T03060185  RH  048%=      5-min Rain = 0
KVP1 171535Z 20015KT 31/18 A3007 RMK A01 T03080183  RH  047%=      5-min Rain = 0
KVP1 171536Z 21014KT 31/18 A3007 RMK A01 T03070183  RH  048%=      5-min Rain = 0
KVP1 171537Z 21009KT 30/18 A3007 RMK A01 T03040183  RH  048%=      5-min Rain = 0
KVP1 171538Z 20014KT 31/18 A3007 RMK A01 T03060184  RH  048%=      5-min Rain = 0
KVP1 171539Z 21016KT 31/18 A3007 RMK A01 T03080183  RH  047%=      5-min Rain = 0
KVP1 171540Z 21019KT 31/18 A3007 RMK A01 T03070180  RH  047%=      5-min Rain = 0
KVP1 171541Z 21015KT 31/18 A3007 RMK A01 T03060182  RH  047%=      5-min Rain = 0
KVP1 171542Z 22014KT 31/18 A3007 RMK A01 T03060182  RH  047%=      5-min Rain = 0
KVP1 171543Z 22013KT 31/18 A3007 RMK A01 T03050183  RH  048%=      5-min Rain = 0
KVP1 171544Z 21013KT 31/18 A3007 RMK A01 T03050183  RH  048%=      5-min Rain = 0
KVP1 171545Z 21014KT 31/18 A3007 RMK A01 T03070182  RH  047%=      5-min Rain = 0
KVP1 171546Z 21015KT 31/18 A3007 RMK A01 T03080182  RH  047%=      5-min Rain = 0
KVP1 171547Z 20014KT 31/18 A3007 RMK A01 T03080181  RH  047%=      5-min Rain = 0
KVP1 171548Z 21013KT 31/18 A3007 RMK A01 T03080181  RH  047%=      5-min Rain = 0
KVP1 171549Z 22016KT 31/18 A3006 RMK A01 T03090181  RH  046%=      5-min Rain = 0
KVP1 171550Z 22018KT 31/18 A3006 RMK A01 T03100178  RH  045%=      5-min Rain = 0
KVP1 171551Z 23014KT 31/18 A3006 RMK A01 T03100178  RH  045%=      5-min Rain = 0
KVP1 171552Z 22013KT 31/18 A3006 RMK A01 T03110178  RH  045%=      5-min Rain = 0
KVP1 171553Z 22015KT 31/18 A3006 RMK A01 T03140180  RH  045%=      5-min Rain = 0
KVP1 171554Z 22016KT 31/18 A3006 RMK A01 T03140179  RH  044%=      5-min Rain = 0
KVP1 171555Z 22015KT 31/18 A3006 RMK A01 T03130178  RH  045%=      5-min Rain = 0
KVP1 171556Z 21014KT 31/18 A3006 RMK A01 T03120178  RH  045%=      5-min Rain = 0
KVP1 171557Z 20017KT 31/18 A3006 RMK A01 T03120176  RH  044%=      5-min Rain = 0
KVP1 171558Z 20017KT 31/18 A3006 RMK A01 T03100178  RH  045%=      5-min Rain = 0
KVP1 171559Z 21017KT 31/18 A3006 RMK A01 T03110176  RH  044%=      5-min Rain = 0
KVP1 171600Z 21015KT 31/18 A3006 RMK A01 T03120176  RH  044%=      5-min Rain = 0
KVP1 171601Z 21018KT 31/18 A3006 RMK A01 T03130176  RH  044%=      5-min Rain = 0
KVP1 171602Z 21014KT 31/18 A3006 RMK A01 T03130177  RH  044%=      5-min Rain = 0
KVP1 171603Z 22011KT 31/18 A3006 RMK A01 T03140178  RH  044%=      5-min Rain = 0
KVP1 171604Z 20012KT 32/18 A3006 RMK A01 T03170180  RH  044%=      5-min Rain = 0
KVP1 171605Z 20016KT 32/18 A3006 RMK A01 T03180178  RH  043%=      5-min Rain = 0
KVP1 171606Z 21014G19KT 32/18 A3006 RMK A01 T03170178  RH  043%=      5-min Rain = 0
KVP1 171607Z 21015KT 32/18 A3006 RMK A01 T03190177  RH  043%=      5-min Rain = 0
KVP1 171608Z 21015KT 32/18 A3006 RMK A01 T03170179  RH  044%=      5-min Rain = 0
KVP1 171609Z 20017G22KT 32/18 A3006 RMK A01 T03170178  RH  044%=      5-min Rain = 0
KVP1 171610Z 20015KT 32/18 A3006 RMK A01 T03180176  RH  043%=      5-min Rain = 0
KVP1 171611Z 21013KT 31/18 A3006 RMK A01 T03140175  RH  044%=      5-min Rain = 0
KVP1 171612Z 20014KT 31/18 A3006 RMK A01 T03120176  RH  044%=      5-min Rain = 0
KVP1 171613Z 20013G18KT 31/18 A3006 RMK A01 T03140177  RH  044%=      5-min Rain = 0
KVP1 171614Z 22014G19KT 32/18 A3006 RMK A01 T03150177  RH  044%=      5-min Rain = 0
KVP1 171615Z 21016KT 32/18 A3006 RMK A01 T03180175  RH  043%=      5-min Rain = 0
KVP1 171616Z 21016KT 32/18 A3006 RMK A01 T03190175  RH  042%=      5-min Rain = 0
KVP1 171617Z 22016KT 32/18 A3006 RMK A01 T03200177  RH  043%=      5-min Rain = 0
KVP1 171618Z 22016KT 32/18 A3006 RMK A01 T03190178  RH  043%=      5-min Rain = 0
KVP1 171619Z 21013KT 32/18 A3006 RMK A01 T03180180  RH  044%=      5-min Rain = 0
KVP1 171620Z 21014KT 32/18 A3006 RMK A01 T03180179  RH  044%=      5-min Rain = 0
KVP1 171621Z 21017KT 32/18 A3006 RMK A01 T03200176  RH  042%=      5-min Rain = 0
KVP1 171622Z 23014KT 32/18 A3006 RMK A01 T03220177  RH  042%=      5-min Rain = 0
KVP1 171623Z 22013KT 32/18 A3006 RMK A01 T03240176  RH  041%=      5-min Rain = 0
KVP1 171624Z 22015KT 32/18 A3006 RMK A01 T03230177  RH  042%=      5-min Rain = 0
KVP1 171625Z 23017KT 32/18 A3006 RMK A01 T03220178  RH  042%=      5-min Rain = 0
KVP1 171626Z 22015KT 32/18 A3006 RMK A01 T03220178  RH  042%=      5-min Rain = 0
KVP1 171627Z 21012KT 32/18 A3006 RMK A01 T03200178  RH  043%=      5-min Rain = 0
KVP1 171628Z 21017KT 32/18 A3006 RMK A01 T03200175  RH  042%=      5-min Rain = 0
KVP1 171629Z 22018KT 32/17 A3006 RMK A01 T03200173  RH  041%=      5-min Rain = 0
KVP1 171630Z 22016KT 32/18 A3006 RMK A01 T03210175  RH  042%=      5-min Rain = 0
KVP1 171631Z 23013KT 32/18 A3006 RMK A01 T03210176  RH  042%=      5-min Rain = 0
KVP1 171632Z 22015KT 32/18 A3006 RMK A01 T03220176  RH  042%=      5-min Rain = 0
KVP1 171633Z 22015G20KT 32/18 A3006 RMK A01 T03240176  RH  041%=      5-min Rain = 0
KVP1 171634Z 22016KT 33/18 A3006 RMK A01 T03280177  RH  041%=      5-min Rain = 0
KVP1 171635Z 22015KT 33/18 A3006 RMK A01 T03280177  RH  041%=      5-min Rain = 0
KVP1 171636Z 22015KT 33/18 A3006 RMK A01 T03270179  RH  041%=      5-min Rain = 0
KVP1 171637Z 21013KT 33/18 A3006 RMK A01 T03250179  RH  042%=      5-min Rain = 0
KVP1 171638Z 20016KT 32/18 A3006 RMK A01 T03230180  RH  043%=      5-min Rain = 0
KVP1 171639Z 20016KT 33/18 A3006 RMK A01 T03250180  RH  042%=      5-min Rain = 0
KVP1 171640Z 22016KT 33/18 A3006 RMK A01 T03260178  RH  041%=      5-min Rain = 0
KVP1 171641Z 22011KT 33/18 A3006 RMK A01 T03250178  RH  042%=      5-min Rain = 0
KVP1 171642Z 21014KT 33/18 A3006 RMK A01 T03260179  RH  042%=      5-min Rain = 0
KVP1 171643Z 19016G21KT 33/18 A3006 RMK A01 T03280176  RH  041%=      5-min Rain = 0
KVP1 171644Z 20016KT 33/18 A3006 RMK A01 T03280175  RH  040%=      5-min Rain = 0
KVP1 171645Z 21012KT 33/18 A3006 RMK A01 T03280175  RH  040%=      5-min Rain = 0
KVP1 171646Z 20014G19KT 33/18 A3006 RMK A01 T03280176  RH  040%=      5-min Rain = 0
KVP1 171647Z 19015KT 33/17 A3006 RMK A01 T03280172  RH  039%=      5-min Rain = 0
KVP1 171648Z 19016KT 33/17 A3006 RMK A01 T03280172  RH  039%=      5-min Rain = 0
KVP1 171649Z 20017KT 33/18 A3006 RMK A01 T03270178  RH  041%=      5-min Rain = 0
KVP1 171650Z 20015KT 33/18 A3006 RMK A01 T03270178  RH  041%=      5-min Rain = 0
KVP1 171651Z 20013KT 33/18 A3006 RMK A01 T03290180  RH  041%=      5-min Rain = 0
KVP1 171652Z 20016KT 33/18 A3006 RMK A01 T03310178  RH  040%=      5-min Rain = 0
KVP1 171653Z 20016KT 33/18 A3006 RMK A01 T03310175  RH  039%=      5-min Rain = 0
KVP1 171654Z 20013KT 33/17 A3006 RMK A01 T03290169  RH  038%=      5-min Rain = 0
KVP1 171655Z 19013KT 33/17 A3006 RMK A01 T03300174  RH  039%=      5-min Rain = 0
KVP1 171656Z 18014KT 33/17 A3006 RMK A01 T03330173  RH  039%=      5-min Rain = 0
KVP1 171657Z 19017KT 33/17 A3006 RMK A01 T03330174  RH  039%=      5-min Rain = 0
KVP1 171658Z 19017KT 33/17 A3006 RMK A01 T03320174  RH  039%=      5-min Rain = 0
KVP1 171659Z 19014KT 33/18 A3006 RMK A01 T03300175  RH  040%=      5-min Rain = 0
KVP1 171700Z 19014KT 33/18 A3006 RMK A01 T03300177  RH  040%=      5-min Rain = 0
KVP1 171701Z 18016KT 33/18 A3006 RMK A01 T03300177  RH  040%=      5-min Rain = 0
KVP1 171702Z 21017KT 33/18 A3006 RMK A01 T03310176  RH  040%=      5-min Rain = 0
KVP1 171703Z 21014G19KT 33/17 A3006 RMK A01 T03330174  RH  039%=      5-min Rain = 0
KVP1 171704Z 21012KT 33/18 A3006 RMK A01 T03330177  RH  039%=      5-min Rain = 0
KVP1 171705Z 21015KT 34/18 A3006 RMK A01 T03350177  RH  039%=      5-min Rain = 0
KVP1 171706Z 21015KT 33/18 A3006 RMK A01 T03340178  RH  040%=      5-min Rain = 0
KVP1 171707Z 20016KT 33/18 A3006 RMK A01 T03330177  RH  040%=      5-min Rain = 0
KVP1 171708Z 20016KT 33/18 A3006 RMK A01 T03330176  RH  039%=      5-min Rain = 0
KVP1 171709Z 19015KT 33/18 A3006 RMK A01 T03310176  RH  040%=      5-min Rain = 0
KVP1 171710Z 20017KT 33/18 A3006 RMK A01 T03290179  RH  041%=      5-min Rain = 0
KVP1 171711Z 19014KT 33/18 A3006 RMK A01 T03310178  RH  040%=      5-min Rain = 0
KVP1 171712Z 19018KT 33/18 A3006 RMK A01 T03310176  RH  040%=      5-min Rain = 0
KVP1 171713Z 20018KT 33/17 A3006 RMK A01 T03330171  RH  038%=      5-min Rain = 0
KVP1 171714Z 19014KT 33/18 A3006 RMK A01 T03340175  RH  039%=      5-min Rain = 0
KVP1 171715Z 19015KT 33/18 A3006 RMK A01 T03330176  RH  039%=      5-min Rain = 0
KVP1 171716Z 19017KT 34/18 A3006 RMK A01 T03360178  RH  039%=      5-min Rain = 0
KVP1 171717Z 19017G25KT 34/18 A3006 RMK A01 T03360177  RH  039%=      5-min Rain = 0
KVP1 171718Z 19019KT 34/18 A3006 RMK A01 T03360175  RH  038%=      5-min Rain = 0
KVP1 171719Z 20016KT 34/18 A3006 RMK A01 T03350175  RH  039%=      5-min Rain = 0
KVP1 171720Z 19012KT 33/18 A3006 RMK A01 T03320177  RH  040%=      5-min Rain = 0
KVP1 171721Z 20012KT 33/18 A3006 RMK A01 T03330180  RH  040%=      5-min Rain = 0
KVP1 171722Z 20015KT 34/18 A3006 RMK A01 T03370178  RH  039%=      5-min Rain = 0
KVP1 171723Z 21017KT 34/18 A3006 RMK A01 T03380177  RH  039%=      5-min Rain = 0
KVP1 171724Z 20014G19KT 34/18 A3006 RMK A01 T03370178  RH  039%=      5-min Rain = 0
KVP1 171725Z 19013G18KT 34/18 A3006 RMK A01 T03390177  RH  038%=      5-min Rain = 0
KVP1 171726Z 22016G24KT 34/18 A3006 RMK A01 T03390175  RH  038%=      5-min Rain = 0
KVP1 171727Z 20020G28KT 34/17 A3006 RMK A01 T03390174  RH  037%=      5-min Rain = 0
KVP1 171728Z 19016KT 34/18 A3006 RMK A01 T03380175  RH  038%=      5-min Rain = 0
KVP1 171729Z 20014KT 34/18 A3006 RMK A01 T03370179  RH  039%=      5-min Rain = 0
KVP1 171730Z 19014KT 34/18 A3006 RMK A01 T03350175  RH  038%=      5-min Rain = 0
KVP1 171731Z 17017KT 34/17 A3006 RMK A01 T03360171  RH  038%=      5-min Rain = 0
KVP1 171732Z 18017KT 34/17 A3006 RMK A01 T03370171  RH  037%=      5-min Rain = 0
KVP1 171733Z 19019KT 34/17 A3006 RMK A01 T03400166  RH  036%=      5-min Rain = 0
KVP1 171734Z 19019KT 34/17 A3006 RMK A01 T03400167  RH  036%=      5-min Rain = 0
KVP1 171735Z 19016KT 34/17 A3006 RMK A01 T03400169  RH  036%=      5-min Rain = 0
KVP1 171736Z 19017G22KT 34/17 A3006 RMK A01 T03380171  RH  037%=      5-min Rain = 0
KVP1 171737Z 20016G21KT 34/17 A3006 RMK A01 T03380173  RH  037%=      5-min Rain = 0
KVP1 171738Z 18019KT 34/17 A3006 RMK A01 T03380173  RH  038%=      5-min Rain = 0
KVP1 171739Z 19018KT 34/17 A3006 RMK A01 T03390172  RH  037%=      5-min Rain = 0
KVP1 171740Z 18014G19KT 34/17 A3005 RMK A01 T03380172  RH  037%=      5-min Rain = 0
KVP1 171741Z 20017KT 34/18 A3005 RMK A01 T03360175  RH  038%=      5-min Rain = 0
KVP1 171742Z 20018KT 34/17 A3005 RMK A01 T03380173  RH  038%=      5-min Rain = 0
KVP1 171743Z 20019KT 34/17 A3005 RMK A01 T03390172  RH  037%=      5-min Rain = 0
KVP1 171744Z 20017KT 34/17 A3005 RMK A01 T03370171  RH  037%=      5-min Rain = 0
KVP1 171745Z 21016KT 34/17 A3005 RMK A01 T03360173  RH  038%=      5-min Rain = 0
KVP1 171746Z 21015KT 34/17 A3005 RMK A01 T03370174  RH  038%=      5-min Rain = 0
KVP1 171747Z 20014KT 34/18 A3005 RMK A01 T03400178  RH  038%=      5-min Rain = 0
KVP1 171748Z 19016KT 34/17 A3005 RMK A01 T03440173  RH  036%=      5-min Rain = 0
KVP1 171749Z 19016KT 35/17 A3005 RMK A01 T03450168  RH  035%=      5-min Rain = 0
KVP1 171750Z 19018KT 35/16 A3005 RMK A01 T03480163  RH  033%=      5-min Rain = 0
KVP1 171751Z 20019KT 35/16 A3005 RMK A01 T03470163  RH  033%=      5-min Rain = 0
KVP1 171752Z 20015KT 34/17 A3005 RMK A01 T03430165  RH  035%=      5-min Rain = 0
KVP1 171753Z 21014G20KT 34/17 A3005 RMK A01 T03430170  RH  036%=      5-min Rain = 0
KVP1 171754Z 19016KT 35/17 A3005 RMK A01 T03450169  RH  035%=      5-min Rain = 0
KVP1 171755Z 19014G19KT 35/17 A3005 RMK A01 T03450168  RH  035%=      5-min Rain = 0
KVP1 171756Z 18018KT 34/16 A3005 RMK A01 T03440164  RH  034%=      5-min Rain = 0
KVP1 171757Z 19017KT 34/16 A3005 RMK A01 T03420160  RH  034%=      5-min Rain = 0
KVP1 171758Z 19015KT 34/16 A3005 RMK A01 T03430161  RH  034%=      5-min Rain = 0
KVP1 171759Z 19015G20KT 34/16 A3005 RMK A01 T03430164  RH  034%=      5-min Rain = 0
KVP1 171800Z 20017KT 34/16 A3005 RMK A01 T03440164  RH  034%=      5-min Rain = 0
KVP1 171801Z 22014KT 34/16 A3005 RMK A01 T03430164  RH  034%=      5-min Rain = 0
KVP1 171802Z 21015KT 34/16 A3005 RMK A01 T03430164  RH  034%=      5-min Rain = 0
KVP1 171803Z 19014KT 35/17 A3005 RMK A01 T03450167  RH  035%=      5-min Rain = 0
KVP1 171804Z 18016KT 35/17 A3005 RMK A01 T03470167  RH  034%=      5-min Rain = 0
KVP1 171805Z 18015G21KT 35/17 A3004 RMK A01 T03480165  RH  034%=      5-min Rain = 0
KVP1 171806Z 19018KT 35/17 A3005 RMK A01 T03490165  RH  034%=      5-min Rain = 0
KVP1 171807Z 19015KT 35/16 A3005 RMK A01 T03480164  RH  033%=      5-min Rain = 0
KVP1 171808Z 19017KT 35/17 A3005 RMK A01 T03480165  RH  034%=      5-min Rain = 0
KVP1 171809Z 18015KT 35/16 A3004 RMK A01 T03480164  RH  033%=      5-min Rain = 0
KVP1 171810Z 19016KT 35/16 A3004 RMK A01 T03480163  RH  033%=      5-min Rain = 0
KVP1 171811Z 19014KT 35/16 A3004 RMK A01 T03470163  RH  033%=      5-min Rain = 0
KVP1 171812Z 20015KT 35/17 A3004 RMK A01 T03450165  RH  034%=      5-min Rain = 0
KVP1 171813Z 20014G21KT 35/17 A3004 RMK A01 T03450166  RH  034%=      5-min Rain = 0
KVP1 171814Z 20019KT 35/16 A3004 RMK A01 T03480164  RH  034%=      5-min Rain = 0
KVP1 171815Z 20019KT 35/16 A3004 RMK A01 T03480160  RH  033%=      5-min Rain = 0
KVP1 171816Z 20017G23KT 34/16 A3004 RMK A01 T03430158  RH  033%=      5-min Rain = 0
KVP1 171817Z 18013KT 34/16 A3004 RMK A01 T03410158  RH  034%=      5-min Rain = 0
KVP1 171818Z 18015KT 34/16 A3004 RMK A01 T03440161  RH  034%=      5-min Rain = 0
KVP1 171819Z 18012KT 35/17 A3004 RMK A01 T03460165  RH  034%=      5-min Rain = 0
KVP1 171820Z 17016KT 35/17 A3004 RMK A01 T03510165  RH  033%=      5-min Rain = 0
KVP1 171821Z 18015G20KT 35/17 A3004 RMK A01 T03510165  RH  033%=      5-min Rain = 0
KVP1 171822Z 18015KT 35/17 A3004 RMK A01 T03500165  RH  033%=      5-min Rain = 0
KVP1 171823Z 17012KT 35/17 A3004 RMK A01 T03500168  RH  034%=      5-min Rain = 0
KVP1 171824Z 18016G22KT 35/17 A3004 RMK A01 T03530167  RH  033%=      5-min Rain = 0
KVP1 171825Z 19016KT 35/17 A3004 RMK A01 T03530165  RH  033%=      5-min Rain = 0
KVP1 171826Z 18012KT 35/17 A3004 RMK A01 T03530165  RH  033%=      5-min Rain = 0
KVP1 171827Z 18015KT 35/17 A3004 RMK A01 T03540165  RH  033%=      5-min Rain = 0
KVP1 171828Z 18013KT 35/17 A3004 RMK A01 T03530165  RH  033%=      5-min Rain = 0
KVP1 171829Z 19013KT 35/17 A3004 RMK A01 T03510168  RH  034%=      5-min Rain = 0
KVP1 171830Z 21016KT 35/16 A3004 RMK A01 T03520163  RH  033%=      5-min Rain = 0
KVP1 171831Z 20016KT 35/16 A3004 RMK A01 T03500162  RH  033%=      5-min Rain = 0
KVP1 171832Z 22014KT 35/16 A3004 RMK A01 T03460164  RH  034%=      5-min Rain = 0
KVP1 171833Z 20018G25KT 35/16 A3004 RMK A01 T03460164  RH  034%=      5-min Rain = 0
KVP1 171834Z 21013KT 35/16 A3004 RMK A01 T03480160  RH  033%=      5-min Rain = 0
KVP1 171835Z 19014KT 35/16 A3004 RMK A01 T03470162  RH  033%=      5-min Rain = 0
KVP1 171836Z 21014KT 35/16 A3004 RMK A01 T03500164  RH  033%=      5-min Rain = 0
KVP1 171837Z 20013KT 35/16 A3003 RMK A01 T03510163  RH  033%=      5-min Rain = 0
KVP1 171838Z 20013G19KT 35/17 A3004 RMK A01 T03530165  RH  033%=      5-min Rain = 0
KVP1 171839Z 19014KT 36/17 A3004 RMK A01 T03560165  RH  032%=      5-min Rain = 0
KVP1 171840Z 19014KT 35/16 A3003 RMK A01 T03540162  RH  032%=      5-min Rain = 0
KVP1 171841Z 19016KT 35/16 A3003 RMK A01 T03510163  RH  033%=      5-min Rain = 0
KVP1 171842Z 19013KT 35/16 A3003 RMK A01 T03500161  RH  033%=      5-min Rain = 0
KVP1 171843Z 19016KT 35/16 A3003 RMK A01 T03500163  RH  033%=      5-min Rain = 0
KVP1 171844Z 20016KT 35/16 A3003 RMK A01 T03510161  RH  032%=      5-min Rain = 0
KVP1 171845Z 21016G21KT 35/16 A3003 RMK A01 T03520161  RH  032%=      5-min Rain = 0
KVP1 171846Z 19016KT 35/16 A3003 RMK A01 T03540162  RH  032%=      5-min Rain = 0
KVP1 171847Z 19013KT 35/16 A3003 RMK A01 T03540158  RH  031%=      5-min Rain = 0
KVP1 171848Z 19013KT 35/16 A3003 RMK A01 T03520160  RH  032%=      5-min Rain = 0
KVP1 171849Z 19013KT 35/16 A3003 RMK A01 T03520159  RH  032%=      5-min Rain = 0
KVP1 171850Z 20013KT 35/16 A3003 RMK A01 T03520155  RH  031%=      5-min Rain = 0
KVP1 171851Z 21014KT 35/16 A3003 RMK A01 T03520157  RH  031%=      5-min Rain = 0
KVP1 171852Z 19014KT 35/16 A3003 RMK A01 T03510157  RH  031%=      5-min Rain = 0
KVP1 171853Z 20015KT 35/16 A3003 RMK A01 T03490159  RH  032%=      5-min Rain = 0
KVP1 171854Z 21013KT 35/16 A3003 RMK A01 T03460161  RH  033%=      5-min Rain = 0
KVP1 171855Z 21013KT 35/16 A3003 RMK A01 T03460160  RH  033%=      5-min Rain = 0
KVP1 171856Z 20011KT 35/16 A3003 RMK A01 T03470161  RH  033%=      5-min Rain = 0
KVP1 171857Z 19017G22KT 35/16 A3003 RMK A01 T03490163  RH  033%=      5-min Rain = 0
KVP1 171858Z 19015KT 35/16 A3003 RMK A01 T03490162  RH  033%=      5-min Rain = 0
KVP1 171859Z 19009KT 35/16 A3003 RMK A01 T03480161  RH  033%=      5-min Rain = 0
KVP1 171900Z 21013G18KT 35/16 A3003 RMK A01 T03490163  RH  033%=      5-min Rain = 0
KVP1 171901Z 21017KT 35/16 A3003 RMK A01 T03530159  RH  032%=      5-min Rain = 0
KVP1 171902Z 21018KT 35/16 A3003 RMK A01 T03530160  RH  032%=      5-min Rain = 0
KVP1 171903Z 20016KT 35/16 A3003 RMK A01 T03530158  RH  031%=      5-min Rain = 0
KVP1 171904Z 20012KT 35/16 A3003 RMK A01 T03520156  RH  031%=      5-min Rain = 0
KVP1 171905Z 21014KT 35/16 A3003 RMK A01 T03500156  RH  031%=      5-min Rain = 0
KVP1 171906Z 22017KT 35/16 A3003 RMK A01 T03530160  RH  032%=      5-min Rain = 0
KVP1 171907Z 22015KT 35/16 A3003 RMK A01 T03540158  RH  031%=      5-min Rain = 0
KVP1 171908Z 21012KT 36/16 A3002 RMK A01 T03550161  RH  032%=      5-min Rain = 0
KVP1 171909Z 21016KT 36/16 A3002 RMK A01 T03590158  RH  030%=      5-min Rain = 0
KVP1 171910Z 21015KT 36/15 A3002 RMK A01 T03570153  RH  030%=      5-min Rain = 0
KVP1 171911Z 21012KT 35/15 A3002 RMK A01 T03510150  RH  030%=      5-min Rain = 0
KVP1 171912Z 20014G19KT 35/15 A3002 RMK A01 T03500151  RH  030%=      5-min Rain = 0
KVP1 171913Z 21016KT 36/15 A3002 RMK A01 T03550147  RH  029%=      5-min Rain = 0
KVP1 171914Z 21012KT 36/15 A3002 RMK A01 T03550149  RH  029%=      5-min Rain = 0
KVP1 171915Z 17011G16KT 36/16 A3002 RMK A01 T03560159  RH  031%=      5-min Rain = 0
KVP1 171916Z 17015G22KT 36/16 A3002 RMK A01 T03590162  RH  031%=      5-min Rain = 0
KVP1 171917Z 18015KT 36/16 A3002 RMK A01 T03570162  RH  032%=      5-min Rain = 0
KVP1 171918Z 18017KT 36/16 A3002 RMK A01 T03550160  RH  031%=      5-min Rain = 0
KVP1 171919Z 18013G18KT 35/16 A3002 RMK A01 T03520156  RH  031%=      5-min Rain = 0
KVP1 171920Z 18015KT 35/16 A3002 RMK A01 T03510156  RH  031%=      5-min Rain = 0
KVP1 171921Z 17015KT 35/15 A3002 RMK A01 T03510154  RH  031%=      5-min Rain = 0
KVP1 171922Z 17011KT 35/15 A3002 RMK A01 T03520154  RH  031%=      5-min Rain = 0
KVP1 171923Z 21011KT 35/16 A3002 RMK A01 T03510157  RH  031%=      5-min Rain = 0
KVP1 171924Z 21012G17KT 36/16 A3002 RMK A01 T03550158  RH  031%=      5-min Rain = 0
KVP1 171925Z 21014KT 36/15 A3002 RMK A01 T03580154  RH  030%=      5-min Rain = 0
KVP1 171926Z 21017KT 36/16 A3002 RMK A01 T03570159  RH  031%=      5-min Rain = 0
KVP1 171927Z 20016KT 36/16 A3002 RMK A01 T03570159  RH  031%=      5-min Rain = 0
KVP1 171928Z 19013KT 36/16 A3002 RMK A01 T03600162  RH  031%=      5-min Rain = 0
KVP1 171929Z 17016KT 36/16 A3002 RMK A01 T03610157  RH  030%=      5-min Rain = 0
KVP1 171930Z 15013G18KT 36/16 A3002 RMK A01 T03550158  RH  031%=      5-min Rain = 0
KVP1 171931Z 16017G22KT 36/16 A3002 RMK A01 T03560157  RH  031%=      5-min Rain = 0
KVP1 171932Z 17015KT 36/16 A3002 RMK A01 T03560156  RH  030%=      5-min Rain = 0
KVP1 171933Z 16017G22KT 36/15 A3002 RMK A01 T03570153  RH  030%=      5-min Rain = 0
KVP1 171934Z 19014KT 36/16 A3002 RMK A01 T03580155  RH  030%=      5-min Rain = 0
KVP1 171935Z 20021G26KT 36/16 A3002 RMK A01 T03620159  RH  030%=      5-min Rain = 0
KVP1 171936Z 20012G18KT 36/16 A3002 RMK A01 T03580156  RH  030%=      5-min Rain = 0
KVP1 171937Z 20009KT 36/15 A3002 RMK A01 T03550154  RH  030%=      5-min Rain = 0
KVP1 171938Z 18009KT 35/16 A3002 RMK A01 T03530155  RH  031%=      5-min Rain = 0
KVP1 171939Z 17014G19KT 35/16 A3002 RMK A01 T03530159  RH  031%=      5-min Rain = 0
KVP1 171940Z 17012KT 36/15 A3002 RMK A01 T03570150  RH  029%=      5-min Rain = 0
KVP1 171941Z 17016KT 36/15 A3002 RMK A01 T03560151  RH  030%=      5-min Rain = 0
KVP1 171942Z 16014G19KT 35/15 A3002 RMK A01 T03540149  RH  030%=      5-min Rain = 0
KVP1 171943Z 18014KT 35/15 A3002 RMK A01 T03540150  RH  030%=      5-min Rain = 0
KVP1 171944Z 17017KT 36/15 A3002 RMK A01 T03550148  RH  029%=      5-min Rain = 0
KVP1 171945Z 16011KT 35/15 A3002 RMK A01 T03520146  RH  029%=      5-min Rain = 0
KVP1 171946Z 15012G20KT 35/15 A3002 RMK A01 T03490146  RH  030%=      5-min Rain = 0
KVP1 171947Z 20014G19KT 35/15 A3002 RMK A01 T03530152  RH  030%=      5-min Rain = 0
KVP1 171948Z 18013KT 36/15 A3002 RMK A01 T03590153  RH  029%=      5-min Rain = 0
KVP1 171949Z 17011KT 36/15 A3002 RMK A01 T03600150  RH  029%=      5-min Rain = 0
KVP1 171950Z 16015G20KT 36/14 A3002 RMK A01 T03610142  RH  027%=      5-min Rain = 0
KVP1 171951Z 16018G23KT 36/15 A3001 RMK A01 T03620148  RH  028%=      5-min Rain = 0
KVP1 171952Z 16014KT 36/14 A3001 RMK A01 T03590144  RH  028%=      5-min Rain = 0
KVP1 171953Z 16017KT 36/15 A3001 RMK A01 T03580150  RH  029%=      5-min Rain = 0
KVP1 171954Z 17013KT 36/15 A3002 RMK A01 T03580145  RH  028%=      5-min Rain = 0
KVP1 171955Z 16012KT 36/15 A3002 RMK A01 T03580147  RH  028%=      5-min Rain = 0
KVP1 171956Z 18017KT 36/15 A3002 RMK A01 T03590145  RH  028%=      5-min Rain = 0
KVP1 171957Z 18016G21KT 36/15 A3001 RMK A01 T03610145  RH  028%=      5-min Rain = 0
KVP1 171958Z 18015G20KT 36/15 A3002 RMK A01 T03610146  RH  028%=      5-min Rain = 0
KVP1 171959Z 18014KT 36/15 A3001 RMK A01 T03600148  RH  028%=      5-min Rain = 0
KVP1 172000Z 17015KT 36/15 A3001 RMK A01 T03600145  RH  028%=      5-min Rain = 0
KVP1 172001Z 17012KT 36/15 A3001 RMK A01 T03580146  RH  028%=      5-min Rain = 0
KVP1 172002Z 17011KT 36/14 A3001 RMK A01 T03590144  RH  028%=      5-min Rain = 0
KVP1 172003Z 18013KT 36/14 A3001 RMK A01 T03590142  RH  027%=      5-min Rain = 0
KVP1 172004Z 18016KT 36/15 A3001 RMK A01 T03580146  RH  028%=      5-min Rain = 0
KVP1 172005Z 19016KT 36/15 A3001 RMK A01 T03550148  RH  029%=      5-min Rain = 0
KVP1 172006Z 17015G20KT 36/15 A3001 RMK A01 T03580150  RH  029%=      5-min Rain = 0
KVP1 172007Z 17016G21KT 36/15 A3001 RMK A01 T03590147  RH  028%=      5-min Rain = 0
KVP1 172008Z 17010KT 36/15 A3001 RMK A01 T03550145  RH  029%=      5-min Rain = 0
KVP1 172009Z 16011KT 36/15 A3001 RMK A01 T03550148  RH  029%=      5-min Rain = 0
KVP1 172010Z 16012KT 36/15 A3001 RMK A01 T03580147  RH  028%=      5-min Rain = 0
KVP1 172011Z 18013KT 36/14 A3001 RMK A01 T03590144  RH  028%=      5-min Rain = 0
KVP1 172012Z 18015KT 36/14 A3001 RMK A01 T03600142  RH  027%=      5-min Rain = 0
KVP1 172013Z 18018KT 36/14 A3001 RMK A01 T03610141  RH  027%=      5-min Rain = 0
KVP1 172014Z 17011KT 36/14 A3001 RMK A01 T03600142  RH  027%=      5-min Rain = 0
KVP1 172015Z 18012G18KT 36/14 A3001 RMK A01 T03600144  RH  028%=      5-min Rain = 0
KVP1 172016Z 18014KT 36/15 A3001 RMK A01 T03620147  RH  028%=      5-min Rain = 0
KVP1 172017Z 18013KT 36/15 A3001 RMK A01 T03610149  RH  028%=      5-min Rain = 0
KVP1 172018Z 19013KT 36/15 A3001 RMK A01 T03630148  RH  028%=      5-min Rain = 0
KVP1 172019Z 19014KT 36/15 A3001 RMK A01 T03640146  RH  027%=      5-min Rain = 0
KVP1 172020Z 20016KT 36/15 A3001 RMK A01 T03590145  RH  028%=      5-min Rain = 0
KVP1 172021Z 19016KT 36/15 A3001 RMK A01 T03600149  RH  029%=      5-min Rain = 0
KVP1 172022Z 19018KT 36/15 A3001 RMK A01 T03610148  RH  028%=      5-min Rain = 0
KVP1 172023Z 18012KT 36/15 A3001 RMK A01 T03590146  RH  028%=      5-min Rain = 0
KVP1 172024Z 19014KT 36/15 A30 RMK A01 T03590146  RH  028%=      5-min Rain = 0
KVP1 172025Z 19012KT 36/14 A30 RMK A01 T03600143  RH  028%=      5-min Rain = 0
KVP1 172026Z 18012KT 36/14 A30 RMK A01 T03600144  RH  028%=      5-min Rain = 0
KVP1 172027Z 17013KT 36/14 A3001 RMK A01 T03600139  RH  027%=      5-min Rain = 0
KVP1 172028Z 16019KT 36/15 A30 RMK A01 T03620145  RH  027%=      5-min Rain = 0
KVP1 172029Z 19015G20KT 36/15 A3001 RMK A01 T03610151  RH  029%=      5-min Rain = 0
KVP1 172030Z 17013KT 36/15 A3001 RMK A01 T03600152  RH  029%=      5-min Rain = 0
KVP1 172031Z 17014KT 36/15 A3001 RMK A01 T03580151  RH  029%=      5-min Rain = 0
KVP1 172032Z 18011KT 36/15 A3001 RMK A01 T03570151  RH  029%=      5-min Rain = 0
KVP1 172033Z 18012KT 36/15 A30 RMK A01 T03580151  RH  029%=      5-min Rain = 0
KVP1 172034Z 18013KT 36/15 A30 RMK A01 T03580152  RH  029%=      5-min Rain = 0
KVP1 172035Z 20015KT 36/15 A30 RMK A01 T03590150  RH  029%=      5-min Rain = 0
KVP1 172036Z 19015KT 36/15 A30 RMK A01 T03590148  RH  029%=      5-min Rain = 0
KVP1 172037Z 20013G18KT 36/15 A30 RMK A01 T03590146  RH  028%=      5-min Rain = 0
KVP1 172038Z 18013KT 36/15 A30 RMK A01 T03610149  RH  028%=      5-min Rain = 0
KVP1 172039Z 18012G17KT 37/15 A30 RMK A01 T03660145  RH  027%=      5-min Rain = 0
KVP1 172040Z 18018G23KT 36/14 A30 RMK A01 T03630142  RH  027%=      5-min Rain = 0
KVP1 172041Z 20020KT 36/14 A30 RMK A01 T03590140  RH  027%=      5-min Rain = 0
KVP1 172042Z 20017KT 36/14 A30 RMK A01 T03560138  RH  027%=      5-min Rain = 0
KVP1 172043Z 21014KT 36/14 A30 RMK A01 T03570137  RH  027%=      5-min Rain = 0
KVP1 172044Z 20012KT 36/14 A30 RMK A01 T03560137  RH  027%=      5-min Rain = 0
KVP1 172045Z 21012KT 36/14 A30 RMK A01 T03560139  RH  027%=      5-min Rain = 0
KVP1 172046Z 20013G19KT 36/14 A30 RMK A01 T03580142  RH  028%=      5-min Rain = 0
KVP1 172047Z 17015KT 36/14 A30 RMK A01 T03610143  RH  027%=      5-min Rain = 0
KVP1 172048Z 18012KT 36/14 A30 RMK A01 T03610140  RH  027%=      5-min Rain = 0
KVP1 172049Z 18013KT 36/14 A30 RMK A01 T03590140  RH  027%=      5-min Rain = 0
KVP1 172050Z 16015KT 36/14 A30 RMK A01 T03580144  RH  028%=      5-min Rain = 0
KVP1 172051Z 17011KT 36/15 A30 RMK A01 T03590147  RH  028%=      5-min Rain = 0
KVP1 172052Z 18011G17KT 36/15 A30 RMK A01 T03600148  RH  028%=      5-min Rain = 0
KVP1 172053Z 18017KT 36/15 A30 RMK A01 T03630146  RH  027%=      5-min Rain = 0
KVP1 172054Z 17018KT 36/15 A30 RMK A01 T03620145  RH  027%=      5-min Rain = 0
KVP1 172055Z 17014KT 36/14 A30 RMK A01 T03610141  RH  027%=      5-min Rain = 0
KVP1 172056Z 17014KT 36/14 A30 RMK A01 T03580141  RH  027%=      5-min Rain = 0
KVP1 172057Z 18012G17KT 36/14 A30 RMK A01 T03570138  RH  027%=      5-min Rain = 0
KVP1 172058Z 19010KT 36/14 A30 RMK A01 T03550138  RH  027%=      5-min Rain = 0
KVP1 172059Z 17010KT 36/14 A30 RMK A01 T03560139  RH  027%=      5-min Rain = 0
KVP1 172100Z 17014KT 36/14 A2999 RMK A01 T03590139  RH  027%=      5-min Rain = 0
KVP1 172101Z 18012KT 36/13 A30 RMK A01 T03590134  RH  026%=      5-min Rain = 0
KVP1 172102Z 18013KT 36/13 A2999 RMK A01 T03570134  RH  026%=      5-min Rain = 0
KVP1 172103Z 18013KT 36/13 A2999 RMK A01 T03590134  RH  026%=      5-min Rain = 0
KVP1 172104Z 18013KT 36/14 A2999 RMK A01 T03620135  RH  026%=      5-min Rain = 0
KVP1 172105Z 17018G25KT 36/13 A2999 RMK A01 T03610134  RH  026%=      5-min Rain = 0
KVP1 172106Z 20016KT 36/14 A2999 RMK A01 T03590136  RH  026%=      5-min Rain = 0
KVP1 172107Z 20016KT 36/13 A2999 RMK A01 T03610133  RH  025%=      5-min Rain = 0
KVP1 172108Z 20013KT 36/13 A2999 RMK A01 T03600133  RH  026%=      5-min Rain = 0
KVP1 172109Z 19012KT 36/14 A2999 RMK A01 T03630136  RH  026%=      5-min Rain = 0
KVP1 172110Z 19011KT 36/14 A2999 RMK A01 T03630136  RH  026%=      5-min Rain = 0
KVP1 172111Z 19015KT 36/14 A2999 RMK A01 T03620136  RH  026%=      5-min Rain = 0
KVP1 172112Z 19015KT 36/14 A2999 RMK A01 T03630137  RH  026%=      5-min Rain = 0
KVP1 172113Z 20013KT 36/14 A2999 RMK A01 T03640136  RH  026%=      5-min Rain = 0
KVP1 172114Z 22014G19KT 36/14 A2999 RMK A01 T03630135  RH  025%=      5-min Rain = 0
KVP1 172115Z 21015KT 36/13 A2999 RMK A01 T03620129  RH  025%=      5-min Rain = 0
KVP1 172116Z 19014KT 36/13 A2999 RMK A01 T03630129  RH  025%=      5-min Rain = 0
KVP1 172117Z 19014G20KT 36/14 A2999 RMK A01 T03630137  RH  026%=      5-min Rain = 0
KVP1 172118Z 18018KT 37/14 A2999 RMK A01 T03650137  RH  026%=      5-min Rain = 0
KVP1 172119Z 18014KT 36/14 A2999 RMK A01 T03620137  RH  026%=      5-min Rain = 0
KVP1 172120Z 18016G23KT 36/14 A2999 RMK A01 T03620135  RH  026%=      5-min Rain = 0
KVP1 172121Z 19018KT 36/13 A2999 RMK A01 T03610133  RH  026%=      5-min Rain = 0
KVP1 172122Z 18014KT 36/14 A2999 RMK A01 T03590136  RH  026%=      5-min Rain = 0
KVP1 172123Z 19020KT 36/13 A2999 RMK A01 T03590134  RH  026%=      5-min Rain = 0
KVP1 172124Z 19016KT 36/13 A2999 RMK A01 T03570134  RH  026%=      5-min Rain = 0
KVP1 172125Z 19014KT 36/13 A2999 RMK A01 T03550134  RH  027%=      5-min Rain = 0
KVP1 172126Z 18012KT 35/13 A2999 RMK A01 T03520132  RH  027%=      5-min Rain = 0
KVP1 172127Z 19010KT 35/13 A2999 RMK A01 T03510132  RH  027%=      5-min Rain = 0
KVP1 172128Z 21016KT 35/13 A2999 RMK A01 T03540132  RH  026%=      5-min Rain = 0
KVP1 172129Z 20016KT 36/13 A2999 RMK A01 T03580130  RH  025%=      5-min Rain = 0
KVP1 172130Z 19015KT 36/13 A2999 RMK A01 T03590130  RH  025%=      5-min Rain = 0
KVP1 172131Z 21014KT 36/13 A2999 RMK A01 T03590130  RH  025%=      5-min Rain = 0
KVP1 172132Z 21017KT 36/13 A2999 RMK A01 T03620125  RH  024%=      5-min Rain = 0
KVP1 172133Z 20013KT 36/13 A2999 RMK A01 T03640128  RH  024%=      5-min Rain = 0
KVP1 172134Z 19014KT 37/13 A2999 RMK A01 T03680131  RH  024%=      5-min Rain = 0
KVP1 172135Z 17012KT 37/14 A2999 RMK A01 T03690137  RH  025%=      5-min Rain = 0
KVP1 172136Z 18011KT 37/14 A2999 RMK A01 T03670137  RH  025%=      5-min Rain = 0
KVP1 172137Z 19009KT 37/14 A2998 RMK A01 T03650138  RH  026%=      5-min Rain = 0
KVP1 172138Z 21011G16KT 36/13 A2998 RMK A01 T03640134  RH  025%=      5-min Rain = 0
KVP1 172139Z 20011G16KT 37/13 A2998 RMK A01 T03660126  RH  024%=      5-min Rain = 0
KVP1 172140Z 19013G19KT 37/13 A2998 RMK A01 T03680132  RH  024%=      5-min Rain = 0
KVP1 172141Z 19013KT 37/13 A2998 RMK A01 T03720134  RH  024%=      5-min Rain = 0
KVP1 172142Z 20016G21KT 37/14 A2998 RMK A01 T03720136  RH  025%=      5-min Rain = 0
KVP1 172143Z 19016KT 37/14 A2998 RMK A01 T03690136  RH  025%=      5-min Rain = 0
KVP1 172144Z 18015KT 37/14 A2998 RMK A01 T03660138  RH  026%=      5-min Rain = 0
KVP1 172145Z 18016KT 36/14 A2998 RMK A01 T03640140  RH  026%=      5-min Rain = 0
KVP1 172146Z 19018KT 37/14 A2998 RMK A01 T03650140  RH  026%=      5-min Rain = 0
KVP1 172147Z 18014KT 36/14 A2998 RMK A01 T03630142  RH  027%=      5-min Rain = 0
KVP1 172148Z 18013KT 36/14 A2998 RMK A01 T03610142  RH  027%=      5-min Rain = 0
KVP1 172149Z 19010KT 36/14 A2998 RMK A01 T03610141  RH  027%=      5-min Rain = 0
KVP1 172150Z 19010KT 37/14 A2998 RMK A01 T03660142  RH  026%=      5-min Rain = 0
KVP1 172151Z 19014KT 37/14 A2998 RMK A01 T03680141  RH  026%=      5-min Rain = 0
KVP1 172152Z 17014KT 37/14 A2998 RMK A01 T03680140  RH  026%=      5-min Rain = 0
KVP1 172153Z 20011G16KT 36/14 A2998 RMK A01 T03640139  RH  026%=      5-min Rain = 0
KVP1 172154Z 19013KT 36/13 A2998 RMK A01 T03640134  RH  025%=      5-min Rain = 0
KVP1 172155Z 19012KT 36/13 A2998 RMK A01 T03640134  RH  025%=      5-min Rain = 0
KVP1 172156Z 19011KT 36/14 A2998 RMK A01 T03640137  RH  026%=      5-min Rain = 0
KVP1 172157Z 18013KT 36/14 A2998 RMK A01 T03640138  RH  026%=      5-min Rain = 0
KVP1 172158Z 18015KT 36/14 A2998 RMK A01 T03640139  RH  026%=      5-min Rain = 0
KVP1 172159Z 20013KT 36/14 A2998 RMK A01 T03630140  RH  026%=      5-min Rain = 0
KVP1 172200Z 20014G20KT 37/14 A2998 RMK A01 T03670137  RH  025%=      5-min Rain = 0
KVP1 172201Z 20016KT 37/14 A2998 RMK A01 T03700136  RH  025%=      5-min Rain = 0
KVP1 172202Z 20015KT 37/13 A2998 RMK A01 T03680134  RH  025%=      5-min Rain = 0
KVP1 172203Z 20014KT 37/14 A2998 RMK A01 T03670136  RH  025%=      5-min Rain = 0
KVP1 172204Z 20017KT 37/14 A2998 RMK A01 T03650136  RH  026%=      5-min Rain = 0
KVP1 172205Z 21014KT 36/14 A2998 RMK A01 T03610137  RH  026%=      5-min Rain = 0
KVP1 172206Z 21018KT 36/14 A2998 RMK A01 T03600138  RH  026%=      5-min Rain = 0
KVP1 172207Z 22014G19KT 36/14 A2998 RMK A01 T03610137  RH  026%=      5-min Rain = 0
KVP1 172208Z 20013KT 36/14 A2997 RMK A01 T03620138  RH  026%=      5-min Rain = 0
KVP1 172209Z 21014KT 37/14 A2998 RMK A01 T03650136  RH  025%=      5-min Rain = 0
KVP1 172210Z 20012G17KT 37/14 A2998 RMK A01 T03660135  RH  025%=      5-min Rain = 0
KVP1 172211Z 20014KT 37/13 A2998 RMK A01 T03660134  RH  025%=      5-min Rain = 0
KVP1 172212Z 20013KT 36/13 A2998 RMK A01 T03640132  RH  025%=      5-min Rain = 0
KVP1 172213Z 20012G17KT 36/13 A2998 RMK A01 T03630130  RH  025%=      5-min Rain = 0
KVP1 172214Z 20016G21KT 36/13 A2998 RMK A01 T03630134  RH  025%=      5-min Rain = 0
KVP1 172215Z 20013G18KT 36/13 A2997 RMK A01 T03640133  RH  025%=      5-min Rain = 0
KVP1 172216Z 18018KT 36/13 A2998 RMK A01 T03620134  RH  025%=      5-min Rain = 0
KVP1 172217Z 19016KT 36/13 A2998 RMK A01 T03610133  RH  026%=      5-min Rain = 0
KVP1 172218Z 20014KT 36/13 A2998 RMK A01 T03590131  RH  025%=      5-min Rain = 0
KVP1 172219Z 19013KT 36/13 A2998 RMK A01 T03590131  RH  025%=      5-min Rain = 0
KVP1 172220Z 19016KT 36/13 A2997 RMK A01 T03610131  RH  025%=      5-min Rain = 0
KVP1 172221Z 19018KT 36/13 A2997 RMK A01 T03620127  RH  025%=      5-min Rain = 0
KVP1 172222Z 19016KT 36/12 A2998 RMK A01 T03620124  RH  024%=      5-min Rain = 0
KVP1 172223Z 20016KT 36/12 A2997 RMK A01 T03610123  RH  024%=      5-min Rain = 0
KVP1 172224Z 20017KT 36/12 A2997 RMK A01 T03600120  RH  023%=      5-min Rain = 0
KVP1 172225Z 20016KT 36/12 A2997 RMK A01 T03610123  RH  024%=      5-min Rain = 0
KVP1 172226Z 20017KT 36/13 A2997 RMK A01 T03610126  RH  025%=      5-min Rain = 0
KVP1 172227Z 20015KT 36/13 A2997 RMK A01 T03600127  RH  025%=      5-min Rain = 0
KVP1 172228Z 21009KT 36/13 A2997 RMK A01 T03600126  RH  025%=      5-min Rain = 0
KVP1 172229Z 20007KT 36/13 A2997 RMK A01 T03600127  RH  025%=      5-min Rain = 0
KVP1 172230Z 19014KT 36/13 A2997 RMK A01 T03610128  RH  025%=      5-min Rain = 0
KVP1 172231Z 19014KT 36/13 A2997 RMK A01 T03620132  RH  025%=      5-min Rain = 0
KVP1 172232Z 21015KT 37/12 A2997 RMK A01 T03650123  RH  023%=      5-min Rain = 0
KVP1 172233Z 20014KT 37/12 A2997 RMK A01 T03650120  RH  023%=      5-min Rain = 0
KVP1 172234Z 19013KT 36/12 A2997 RMK A01 T03620118  RH  023%=      5-min Rain = 0
KVP1 172235Z 18011KT 36/12 A2997 RMK A01 T03610116  RH  023%=      5-min Rain = 0
KVP1 172236Z 20010KT 36/12 A2997 RMK A01 T03590119  RH  024%=      5-min Rain = 0
KVP1 172237Z 19013G19KT 36/13 A2997 RMK A01 T03600125  RH  024%=      5-min Rain = 0
KVP1 172238Z 18018KT 36/14 A2997 RMK A01 T03610135  RH  026%=      5-min Rain = 0
KVP1 172239Z 19015KT 36/14 A2997 RMK A01 T03590136  RH  026%=      5-min Rain = 0
KVP1 172240Z 18012KT 36/13 A2997 RMK A01 T03580134  RH  026%=      5-min Rain = 0
KVP1 172241Z 20013KT 36/14 A2997 RMK A01 T03590135  RH  026%=      5-min Rain = 0
KVP1 172242Z 19013G19KT 36/13 A2997 RMK A01 T03630132  RH  025%=      5-min Rain = 0
KVP1 172243Z 18013KT 36/13 A2997 RMK A01 T03640132  RH  025%=      5-min Rain = 0
KVP1 172244Z 19012KT 36/13 A2996 RMK A01 T03630130  RH  025%=      5-min Rain = 0
KVP1 172245Z 17010KT 36/13 A2997 RMK A01 T03610130  RH  025%=      5-min Rain = 0
KVP1 172246Z 19009KT 36/13 A2997 RMK A01 T03580129  RH  025%=      5-min Rain = 0
KVP1 172247Z 19011G17KT 36/14 A2997 RMK A01 T03580135  RH  026%=      5-min Rain = 0
KVP1 172248Z 19014KT 36/14 A2997 RMK A01 T03600137  RH  026%=      5-min Rain = 0
KVP1 172249Z 19011KT 36/14 A2996 RMK A01 T03600136  RH  026%=      5-min Rain = 0
KVP1 172250Z 21015KT 36/14 A2996 RMK A01 T03600136  RH  026%=      5-min Rain = 0
KVP1 172251Z 19014KT 36/14 A2996 RMK A01 T03590137  RH  026%=      5-min Rain = 0
KVP1 172252Z 18014KT 36/14 A2996 RMK A01 T03590140  RH  027%=      5-min Rain = 0
KVP1 172253Z 19014KT 36/14 A2996 RMK A01 T03600140  RH  027%=      5-min Rain = 0
KVP1 172254Z 19015KT 36/14 A2996 RMK A01 T03590140  RH  027%=      5-min Rain = 0
KVP1 172255Z 19016KT 36/14 A2996 RMK A01 T03590140  RH  027%=      5-min Rain = 0
KVP1 172256Z 20013KT 36/14 A2996 RMK A01 T03580142  RH  028%=      5-min Rain = 0
KVP1 172257Z 18011KT 36/14 A2996 RMK A01 T03610144  RH  027%=      5-min Rain = 0
KVP1 172258Z 16015KT 36/14 A2996 RMK A01 T03630142  RH  027%=      5-min Rain = 0
KVP1 172259Z 17017KT 36/14 A2996 RMK A01 T03620140  RH  027%=      5-min Rain = 0
KVP1 172300Z 16015KT 36/14 A2996 RMK A01 T03590139  RH  027%=      5-min Rain = 0
KVP1 172301Z 16016KT 36/14 A2996 RMK A01 T03570137  RH  027%=      5-min Rain = 0
KVP1 172302Z 16015G20KT 36/13 A2996 RMK A01 T03550134  RH  027%=      5-min Rain = 0
KVP1 172303Z 16013G18KT 36/14 A2996 RMK A01 T03550137  RH  027%=      5-min Rain = 0
KVP1 172304Z 16014KT 36/13 A2996 RMK A01 T03560132  RH  026%=      5-min Rain = 0
KVP1 172305Z 17012KT 36/13 A2996 RMK A01 T03560130  RH  026%=      5-min Rain = 0
KVP1 172306Z 18015KT 36/13 A2996 RMK A01 T03570133  RH  026%=      5-min Rain = 0
KVP1 172307Z 17014KT 36/13 A2996 RMK A01 T03580133  RH  026%=      5-min Rain = 0
KVP1 172308Z 17012KT 36/13 A2996 RMK A01 T03580134  RH  026%=      5-min Rain = 0
KVP1 172309Z 17015G20KT 36/14 A2996 RMK A01 T03590136  RH  026%=      5-min Rain = 0
KVP1 172310Z 18012KT 36/14 A2996 RMK A01 T03580142  RH  027%=      5-min Rain = 0
KVP1 172311Z 17016KT 36/14 A2996 RMK A01 T03600137  RH  026%=      5-min Rain = 0
KVP1 172312Z 17016KT 36/13 A2996 RMK A01 T03580132  RH  026%=      5-min Rain = 0
KVP1 172313Z 18018KT 36/13 A2996 RMK A01 T03570134  RH  026%=      5-min Rain = 0
KVP1 172314Z 16017KT 36/14 A2996 RMK A01 T03560136  RH  027%=      5-min Rain = 0
KVP1 172315Z 18017KT 36/14 A2996 RMK A01 T03560136  RH  027%=      5-min Rain = 0
KVP1 172316Z 17015KT 36/13 A2996 RMK A01 T03550133  RH  026%=      5-min Rain = 0
KVP1 172317Z 17016G21KT 36/14 A2996 RMK A01 T03550135  RH  027%=      5-min Rain = 0
KVP1 172318Z 17019KT 36/13 A2996 RMK A01 T03550131  RH  026%=      5-min Rain = 0
KVP1 172319Z 18016KT 35/13 A2996 RMK A01 T03540132  RH  026%=      5-min Rain = 0
KVP1 172320Z 19017KT 35/13 A2996 RMK A01 T03530134  RH  027%=      5-min Rain = 0
KVP1 172321Z 19015KT 35/14 A2996 RMK A01 T03530136  RH  027%=      5-min Rain = 0
KVP1 172322Z 18016KT 35/14 A2996 RMK A01 T03540137  RH  027%=      5-min Rain = 0
KVP1 172323Z 18015KT 36/14 A2996 RMK A01 T03550137  RH  027%=      5-min Rain = 0
KVP1 172324Z 18011KT 36/14 A2996 RMK A01 T03550142  RH  028%=      5-min Rain = 0
KVP1 172325Z 16011KT 35/14 A2996 RMK A01 T03540142  RH  028%=      5-min Rain = 0
KVP1 172326Z 17012KT 35/14 A2995 RMK A01 T03540141  RH  028%=      5-min Rain = 0
KVP1 172327Z 19015KT 35/15 A2995 RMK A01 T03540145  RH  029%=      5-min Rain = 0
KVP1 172328Z 18017KT 36/14 A2995 RMK A01 T03550144  RH  028%=      5-min Rain = 0
KVP1 172329Z 17014KT 36/15 A2995 RMK A01 T03550146  RH  029%=      5-min Rain = 0
KVP1 172330Z 18016KT 36/15 A2996 RMK A01 T03550146  RH  029%=      5-min Rain = 0
KVP1 172331Z 18014KT 36/15 A2996 RMK A01 T03560146  RH  029%=      5-min Rain = 0
KVP1 172332Z 18017KT 36/14 A2996 RMK A01 T03560144  RH  028%=      5-min Rain = 0
KVP1 172333Z 18016KT 36/14 A2996 RMK A01 T03560142  RH  028%=      5-min Rain = 0
KVP1 172334Z 18015KT 35/14 A2996 RMK A01 T03530141  RH  028%=      5-min Rain = 0
KVP1 172335Z 18014KT 35/14 A2996 RMK A01 T03520144  RH  029%=      5-min Rain = 0
KVP1 172336Z 19016KT 35/15 A2996 RMK A01 T03530145  RH  029%=      5-min Rain = 0
KVP1 172337Z 19014KT 35/14 A2996 RMK A01 T03530143  RH  029%=      5-min Rain = 0
KVP1 172338Z 18017G24KT 35/15 A2996 RMK A01 T03520145  RH  029%=      5-min Rain = 0
KVP1 172339Z 17015G20KT 35/14 A2995 RMK A01 T03520144  RH  029%=      5-min Rain = 0
KVP1 172340Z 16016KT 35/15 A2995 RMK A01 T03510145  RH  029%=      5-min Rain = 0
KVP1 172341Z 17017KT 35/14 A2995 RMK A01 T03510144  RH  029%=      5-min Rain = 0
KVP1 172342Z 17017KT 35/15 A2995 RMK A01 T03510145  RH  029%=      5-min Rain = 0
KVP1 172343Z 17016G21KT 35/14 A2995 RMK A01 T03500144  RH  029%=      5-min Rain = 0
KVP1 172344Z 17017G22KT 35/14 A2995 RMK A01 T03500142  RH  029%=      5-min Rain = 0
KVP1 172345Z 18015KT 35/14 A2995 RMK A01 T03490143  RH  029%=      5-min Rain = 0
KVP1 172346Z 19016KT 35/15 A2995 RMK A01 T03500145  RH  029%=      5-min Rain = 0
KVP1 172347Z 20014KT 35/14 A2995 RMK A01 T03510144  RH  029%=      5-min Rain = 0
KVP1 172348Z 20013KT 35/14 A2995 RMK A01 T03510143  RH  029%=      5-min Rain = 0
KVP1 172349Z 19014KT 35/15 A2995 RMK A01 T03500145  RH  029%=      5-min Rain = 0
KVP1 172350Z 18013KT 35/15 A2995 RMK A01 T03510147  RH  030%=      5-min Rain = 0
KVP1 172351Z 19010KT 35/15 A2995 RMK A01 T03520148  RH  030%=      5-min Rain = 0
KVP1 172352Z 19011KT 35/15 A2995 RMK A01 T03530148  RH  029%=      5-min Rain = 0
KVP1 172353Z 19012KT 35/15 A2995 RMK A01 T03530145  RH  029%=      5-min Rain = 0
KVP1 172354Z 19010KT 35/15 A2995 RMK A01 T03520147  RH  029%=      5-min Rain = 0
KVP1 172355Z 19014G21KT 35/15 A2995 RMK A01 T03520150  RH  030%=      5-min Rain = 0
KVP1 172356Z 18018KT 35/15 A2995 RMK A01 T03530148  RH  029%=      5-min Rain = 0
KVP1 172357Z 19017KT 35/15 A2995 RMK A01 T03510146  RH  029%=      5-min Rain = 0
KVP1 172358Z 18014KT 35/15 A2995 RMK A01 T03490147  RH  030%=      5-min Rain = 0
KVP1 172359Z 18017KT 35/15 A2995 RMK A01 T03490146  RH  030%=      5-min Rain = 0
KVP1 180000Z 18014G19KT 35/15 A2995 RMK A01 T03490145  RH  029%=      5-min Rain = 0
KVP1 180001Z 18020KT 35/15 A2995 RMK A01 T03500147  RH  030%=      5-min Rain = 0
KVP1 180002Z 19015KT 35/15 A2995 RMK A01 T03490146  RH  030%=      5-min Rain = 0
KVP1 180003Z 17014KT 35/15 A2995 RMK A01 T03490147  RH  030%=      5-min Rain = 0
KVP1 180004Z 18014KT 35/14 A2995 RMK A01 T03490144  RH  029%=      5-min Rain = 0
KVP1 180005Z 17011KT 35/15 A2995 RMK A01 T03490146  RH  030%=      5-min Rain = 0
KVP1 180006Z 17016KT 35/14 A2995 RMK A01 T03480144  RH  029%=      5-min Rain = 0
KVP1 180007Z 16015KT 35/14 A2995 RMK A01 T03460143  RH  030%=      5-min Rain = 0
KVP1 180008Z 17017KT 35/14 A2995 RMK A01 T03460144  RH  030%=      5-min Rain = 0
KVP1 180009Z 17016KT 35/14 A2995 RMK A01 T03470141  RH  029%=      5-min Rain = 0
KVP1 180010Z 18014KT 35/14 A2995 RMK A01 T03470143  RH  029%=      5-min Rain = 0
KVP1 180011Z 17017KT 35/14 A2995 RMK A01 T03480142  RH  029%=      5-min Rain = 0
KVP1 180012Z 19016KT 35/14 A2995 RMK A01 T03480141  RH  029%=      5-min Rain = 0
KVP1 180013Z 19014KT 35/14 A2995 RMK A01 T03460142  RH  029%=      5-min Rain = 0
KVP1 180014Z 20016KT 35/14 A2995 RMK A01 T03450141  RH  029%=      5-min Rain = 0
KVP1 180015Z 19013KT 35/14 A2995 RMK A01 T03450141  RH  029%=      5-min Rain = 0
KVP1 180016Z 18017KT 35/14 A2995 RMK A01 T03450142  RH  030%=      5-min Rain = 0
KVP1 180017Z 17018KT 34/14 A2995 RMK A01 T03440143  RH  030%=      5-min Rain = 0
KVP1 180018Z 18017KT 34/14 A2995 RMK A01 T03430143  RH  030%=      5-min Rain = 0
KVP1 180019Z 18016KT 34/14 A2995 RMK A01 T03430143  RH  030%=      5-min Rain = 0
KVP1 180020Z 18015KT 34/14 A2995 RMK A01 T03430142  RH  030%=      5-min Rain = 0
KVP1 180021Z 18015KT 34/14 A2995 RMK A01 T03430143  RH  030%=      5-min Rain = 0
KVP1 180022Z 18017KT 34/14 A2995 RMK A01 T03430142  RH  030%=      5-min Rain = 0
KVP1 180023Z 18014G19KT 34/14 A2995 RMK A01 T03420141  RH  030%=      5-min Rain = 0
KVP1 180024Z 18014KT 34/14 A2995 RMK A01 T03420144  RH  030%=      5-min Rain = 0
KVP1 180025Z 19017KT 34/14 A2995 RMK A01 T03420142  RH  030%=      5-min Rain = 0
KVP1 180026Z 19016KT 34/14 A2995 RMK A01 T03420142  RH  030%=      5-min Rain = 0
KVP1 180027Z 19017KT 34/14 A2995 RMK A01 T03420142  RH  030%=      5-min Rain = 0
KVP1 180028Z 19013KT 34/14 A2995 RMK A01 T03410143  RH  030%=      5-min Rain = 0
KVP1 180029Z 19015KT 34/14 A2995 RMK A01 T03410143  RH  030%=      5-min Rain = 0
KVP1 180030Z 19016KT 34/14 A2995 RMK A01 T03410143  RH  030%=      5-min Rain = 0
KVP1 180031Z 19014KT 34/14 A2995 RMK A01 T03400142  RH  030%=      5-min Rain = 0
KVP1 180032Z 19013KT 34/14 A2995 RMK A01 T03400144  RH  031%=      5-min Rain = 0
KVP1 180033Z 19016KT 34/14 A2995 RMK A01 T03400144  RH  031%=      5-min Rain = 0
KVP1 180034Z 18017KT 34/14 A2995 RMK A01 T03400143  RH  031%=      5-min Rain = 0
KVP1 180035Z 19018KT 34/14 A2995 RMK A01 T03400142  RH  031%=      5-min Rain = 0
KVP1 180036Z 19014KT 34/14 A2995 RMK A01 T03400142  RH  030%=      5-min Rain = 0
KVP1 180037Z 19015KT 34/14 A2995 RMK A01 T03400141  RH  030%=      5-min Rain = 0
KVP1 180038Z 19015KT 34/14 A2995 RMK A01 T03390141  RH  030%=      5-min Rain = 0
KVP1 180039Z 19015KT 34/14 A2995 RMK A01 T03390141  RH  030%=      5-min Rain = 0
KVP1 180040Z 19015KT 34/14 A2995 RMK A01 T03390140  RH  030%=      5-min Rain = 0
KVP1 180041Z 20014KT 34/14 A2995 RMK A01 T03390139  RH  030%=      5-min Rain = 0
KVP1 180042Z 19013KT 34/14 A2995 RMK A01 T03390140  RH  030%=      5-min Rain = 0
KVP1 180043Z 19011KT 34/14 A2995 RMK A01 T03390142  RH  031%=      5-min Rain = 0
KVP1 180044Z 19016KT 34/14 A2995 RMK A01 T03380142  RH  031%=      5-min Rain = 0
KVP1 180045Z 19014KT 34/14 A2995 RMK A01 T03380143  RH  031%=      5-min Rain = 0
KVP1 180046Z 19013KT 34/14 A2995 RMK A01 T03380142  RH  031%=      5-min Rain = 0
KVP1 180047Z 19013KT 34/14 A2995 RMK A01 T03370142  RH  031%=      5-min Rain = 0
KVP1 180048Z 19013KT 34/14 A2995 RMK A01 T03370141  RH  031%=      5-min Rain = 0
KVP1 180049Z 19015KT 34/14 A2995 RMK A01 T03370140  RH  031%=      5-min Rain = 0
KVP1 180050Z 19014KT 34/14 A2995 RMK A01 T03370138  RH  030%=      5-min Rain = 0
KVP1 180051Z 18013KT 34/14 A2995 RMK A01 T03360139  RH  030%=      5-min Rain = 0
KVP1 180052Z 18015KT 34/14 A2995 RMK A01 T03360138  RH  030%=      5-min Rain = 0
KVP1 180053Z 18013KT 34/14 A2995 RMK A01 T03360137  RH  030%=      5-min Rain = 0
KVP1 180054Z 18013KT 34/14 A2995 RMK A01 T03360136  RH  030%=      5-min Rain = 0
KVP1 180055Z 18014KT 34/14 A2995 RMK A01 T03360136  RH  030%=      5-min Rain = 0
KVP1 180056Z 18014KT 34/14 A2995 RMK A01 T03360137  RH  030%=      5-min Rain = 0
KVP1 180057Z 17014KT 34/14 A2995 RMK A01 T03360138  RH  030%=      5-min Rain = 0
KVP1 180058Z 17016KT 34/14 A2995 RMK A01 T03360138  RH  030%=      5-min Rain = 0
KVP1 180059Z 18014KT 34/14 A2995 RMK A01 T03350140  RH  031%=      5-min Rain = 0
KVP1 180100Z 18015KT 34/14 A2995 RMK A01 T03350141  RH  031%=      5-min Rain = 0
KVP1 180101Z 18016KT 33/14 A2995 RMK A01 T03340141  RH  031%=      5-min Rain = 0
KVP1 180102Z 18014KT 33/14 A2995 RMK A01 T03340141  RH  031%=      5-min Rain = 0
KVP1 180103Z 18016KT 33/14 A2995 RMK A01 T03340141  RH  031%=      5-min Rain = 0
KVP1 180104Z 18014G19KT 33/14 A2995 RMK A01 T03330141  RH  031%=      5-min Rain = 0
KVP1 180105Z 18015KT 33/14 A2995 RMK A01 T03330141  RH  031%=      5-min Rain = 0
KVP1 180106Z 18014G19KT 33/14 A2995 RMK A01 T03330141  RH  032%=      5-min Rain = 0
KVP1 180107Z 17015KT 33/14 A2995 RMK A01 T03330141  RH  031%=      5-min Rain = 0
KVP1 180108Z 17016KT 33/14 A2995 RMK A01 T03320142  RH  032%=      5-min Rain = 0
KVP1 180109Z 18015KT 33/14 A2995 RMK A01 T03320141  RH  032%=      5-min Rain = 0
KVP1 180110Z 17014KT 33/14 A2995 RMK A01 T03320140  RH  032%=      5-min Rain = 0
KVP1 180111Z 18014KT 33/14 A2995 RMK A01 T03310139  RH  031%=      5-min Rain = 0
KVP1 180112Z 18015KT 33/14 A2995 RMK A01 T03310139  RH  031%=      5-min Rain = 0
KVP1 180113Z 18013G18KT 33/14 A2995 RMK A01 T03310139  RH  031%=      5-min Rain = 0
KVP1 180114Z 18016KT 33/14 A2995 RMK A01 T03300139  RH  031%=      5-min Rain = 0
KVP1 180115Z 18018KT 33/14 A2995 RMK A01 T03300138  RH  031%=      5-min Rain = 0
KVP1 180116Z 18015KT 33/14 A2995 RMK A01 T03300138  RH  031%=      5-min Rain = 0
KVP1 180117Z 18011KT 33/14 A2995 RMK A01 T03290139  RH  032%=      5-min Rain = 0
KVP1 180118Z 18014KT 33/14 A2995 RMK A01 T03290139  RH  032%=      5-min Rain = 0
KVP1 180119Z 18014KT 33/14 A2995 RMK A01 T03290138  RH  032%=      5-min Rain = 0
KVP1 180120Z 18014KT 33/14 A2995 RMK A01 T03280137  RH  031%=      5-min Rain = 0
KVP1 180121Z 18013KT 33/14 A2995 RMK A01 T03280137  RH  031%=      5-min Rain = 0
KVP1 180122Z 18012KT 33/14 A2995 RMK A01 T03280137  RH  032%=      5-min Rain = 0
KVP1 180123Z 18013KT 33/14 A2995 RMK A01 T03270138  RH  032%=      5-min Rain = 0
KVP1 180124Z 18015KT 33/14 A2995 RMK A01 T03260141  RH  033%=      5-min Rain = 0
KVP1 180125Z 18015KT 33/14 A2995 RMK A01 T03260142  RH  033%=      5-min Rain = 0
KVP1 180126Z 18015KT 33/14 A2995 RMK A01 T03260144  RH  033%=      5-min Rain = 0
KVP1 180127Z 18014KT 33/15 A2995 RMK A01 T03260146  RH  034%=      5-min Rain = 0
KVP1 180128Z 18014KT 33/15 A2995 RMK A01 T03250146  RH  034%=      5-min Rain = 0
KVP1 180129Z 17014KT 33/15 A2995 RMK A01 T03250147  RH  034%=      5-min Rain = 0
KVP1 180130Z 17013KT 32/15 A2995 RMK A01 T03240147  RH  034%=      5-min Rain = 0
KVP1 180131Z 17014KT 32/15 A2995 RMK A01 T03240148  RH  035%=      5-min Rain = 0
KVP1 180132Z 17012KT 32/15 A2995 RMK A01 T03230149  RH  035%=      5-min Rain = 0
KVP1 180133Z 17012KT 32/15 A2995 RMK A01 T03220150  RH  035%=      5-min Rain = 0
KVP1 180134Z 17014KT 32/15 A2995 RMK A01 T03210151  RH  036%=      5-min Rain = 0
KVP1 180135Z 17012KT 32/15 A2995 RMK A01 T03210152  RH  036%=      5-min Rain = 0
KVP1 180136Z 17011KT 32/15 A2995 RMK A01 T03200153  RH  036%=      5-min Rain = 0
KVP1 180137Z 17011KT 32/15 A2995 RMK A01 T03190154  RH  037%=      5-min Rain = 0
KVP1 180138Z 17011KT 32/15 A2995 RMK A01 T03180154  RH  037%=      5-min Rain = 0
KVP1 180139Z 17012KT 32/16 A2995 RMK A01 T03170155  RH  038%=      5-min Rain = 0
KVP1 180140Z 17012KT 32/16 A2995 RMK A01 T03160156  RH  038%=      5-min Rain = 0
KVP1 180141Z 17013KT 32/16 A2995 RMK A01 T03160156  RH  038%=      5-min Rain = 0
KVP1 180142Z 17013KT 32/16 A2995 RMK A01 T03160156  RH  038%=      5-min Rain = 0
KVP1 180143Z 17015KT 32/16 A2994 RMK A01 T03160156  RH  038%=      5-min Rain = 0
KVP1 180144Z 17013G18KT 32/16 A2994 RMK A01 T03160156  RH  038%=      5-min Rain = 0
KVP1 180145Z 17012KT 32/16 A2994 RMK A01 T03160156  RH  038%=      5-min Rain = 0
KVP1 180146Z 17013KT 32/16 A2995 RMK A01 T03160156  RH  038%=      5-min Rain = 0
KVP1 180147Z 17016KT 32/16 A2995 RMK A01 T03150155  RH  038%=      5-min Rain = 0
KVP1 180148Z 17013KT 32/16 A2995 RMK A01 T03150155  RH  038%=      5-min Rain = 0
KVP1 180149Z 17012G17KT 32/16 A2995 RMK A01 T03150156  RH  038%=      5-min Rain = 0
KVP1 180150Z 17013KT 31/16 A2995 RMK A01 T03130156  RH  039%=      5-min Rain = 0
KVP1 180151Z 16011KT 31/16 A2995 RMK A01 T03120155  RH  039%=      5-min Rain = 0
KVP1 180152Z 17011KT 31/16 A2995 RMK A01 T03120156  RH  039%=      5-min Rain = 0
KVP1 180153Z 17011G16KT 31/16 A2995 RMK A01 T03110156  RH  039%=      5-min Rain = 0
KVP1 180154Z 17013KT 31/16 A2995 RMK A01 T03110155  RH  039%=      5-min Rain = 0
KVP1 180155Z 16010KT 31/16 A2995 RMK A01 T03100156  RH  039%=      5-min Rain = 0
KVP1 180156Z 17012KT 31/16 A2995 RMK A01 T03090156  RH  039%=      5-min Rain = 0
KVP1 180157Z 16011KT 31/16 A2995 RMK A01 T03090156  RH  040%=      5-min Rain = 0
KVP1 180158Z 17012KT 31/16 A2995 RMK A01 T03090156  RH  040%=      5-min Rain = 0
KVP1 180159Z 16013KT 31/16 A2995 RMK A01 T03090156  RH  040%=      5-min Rain = 0
KVP1 180200Z 16011KT 31/16 A2995 RMK A01 T03090156  RH  040%=      5-min Rain = 0
KVP1 180201Z 17012KT 31/16 A2996 RMK A01 T03080156  RH  040%=      5-min Rain = 0
KVP1 180202Z 16011KT 31/16 A2996 RMK A01 T03080156  RH  040%=      5-min Rain = 0
KVP1 180203Z 16012KT 31/16 A2996 RMK A01 T03070156  RH  040%=      5-min Rain = 0
KVP1 180204Z 16011KT 31/16 A2996 RMK A01 T03060156  RH  040%=      5-min Rain = 0
KVP1 180205Z 17011KT 31/16 A2996 RMK A01 T03060156  RH  040%=      5-min Rain = 0
KVP1 180206Z 16012KT 31/16 A2996 RMK A01 T03060155  RH  040%=      5-min Rain = 0
KVP1 180207Z 16011KT 31/16 A2996 RMK A01 T03060155  RH  040%=      5-min Rain = 0
KVP1 180208Z 17011KT 31/16 A2996 RMK A01 T03050155  RH  040%=      5-min Rain = 0
KVP1 180209Z 17011KT 31/16 A2996 RMK A01 T03060155  RH  040%=      5-min Rain = 0
KVP1 180210Z 16010KT 31/16 A2996 RMK A01 T03050156  RH  040%=      5-min Rain = 0
KVP1 180211Z 16010KT 30/16 A2996 RMK A01 T03040156  RH  041%=      5-min Rain = 0
KVP1 180212Z 17011KT 30/16 A2996 RMK A01 T03040156  RH  041%=      5-min Rain = 0
KVP1 180213Z 16011KT 30/16 A2996 RMK A01 T03040156  RH  041%=      5-min Rain = 0
KVP1 180214Z 16010KT 30/16 A2996 RMK A01 T03040156  RH  041%=      5-min Rain = 0
KVP1 180215Z 16011KT 30/16 A2996 RMK A01 T03020156  RH  041%=      5-min Rain = 0
KVP1 180216Z 16010KT 30/16 A2996 RMK A01 T03020156  RH  041%=      5-min Rain = 0
KVP1 180217Z 17011KT 30/16 A2996 RMK A01 T03010156  RH  041%=      5-min Rain = 0
KVP1 180218Z 16011KT 30/16 A2996 RMK A01 T03010155  RH  041%=      5-min Rain = 0
KVP1 180219Z 17011G16KT 30/16 A2996 RMK A01 T03010155  RH  041%=      5-min Rain = 0
KVP1 180220Z 16011KT 30/16 A2996 RMK A01 T03010155  RH  041%=      5-min Rain = 0
KVP1 180221Z 16010KT 30/16 A2996 RMK A01 T03010155  RH  041%=      5-min Rain = 0
KVP1 180222Z 16011KT 30/16 A2996 RMK A01 T03010155  RH  041%=      5-min Rain = 0
KVP1 180223Z 16010KT 30/16 A2996 RMK A01 T03000155  RH  041%=      5-min Rain = 0
KVP1 180224Z 16010KT 30/16 A2996 RMK A01 T02990155  RH  042%=      5-min Rain = 0
KVP1 180225Z 16010KT 30/16 A2996 RMK A01 T02980155  RH  042%=      5-min Rain = 0
KVP1 180226Z 16011KT 30/16 A2996 RMK A01 T02980155  RH  042%=      5-min Rain = 0
KVP1 180227Z 16010KT 30/16 A2996 RMK A01 T02970155  RH  042%=      5-min Rain = 0
KVP1 180228Z 16010KT 30/16 A2996 RMK A01 T02960155  RH  042%=      5-min Rain = 0
KVP1 180229Z 16010KT 30/16 A2996 RMK A01 T02950155  RH  043%=      5-min Rain = 0
KVP1 180230Z 16011KT 29/16 A2996 RMK A01 T02940155  RH  043%=      5-min Rain = 0
KVP1 180231Z 16010KT 29/16 A2996 RMK A01 T02930155  RH  043%=      5-min Rain = 0
KVP1 180232Z 16011KT 29/16 A2996 RMK A01 T02930155  RH  043%=      5-min Rain = 0
KVP1 180233Z 16010KT 29/16 A2996 RMK A01 T02920155  RH  043%=      5-min Rain = 0
KVP1 180234Z 16010KT 29/16 A2996 RMK A01 T02920155  RH  043%=      5-min Rain = 0
KVP1 180235Z 16010KT 29/16 A2996 RMK A01 T02920156  RH  044%=      5-min Rain = 0
KVP1 180236Z 16010KT 29/16 A2996 RMK A01 T02910155  RH  044%=      5-min Rain = 0
KVP1 180237Z 16010KT 29/16 A2996 RMK A01 T02910155  RH  044%=      5-min Rain = 0
KVP1 180238Z 16010KT 29/16 A2996 RMK A01 T02910156  RH  044%=      5-min Rain = 0
KVP1 180239Z 16011KT 29/16 A2996 RMK A01 T02900156  RH  044%=      5-min Rain = 0
KVP1 180240Z 16011KT 29/16 A2996 RMK A01 T02890156  RH  044%=      5-min Rain = 0
KVP1 180241Z 16011KT 29/16 A2996 RMK A01 T02890155  RH  044%=      5-min Rain = 0
KVP1 180242Z 16012KT 29/16 A2996 RMK A01 T02890155  RH  044%=      5-min Rain = 0
KVP1 180243Z 16011KT 29/16 A2996 RMK A01 T02890155  RH  044%=      5-min Rain = 0
KVP1 180244Z 16011KT 29/16 A2996 RMK A01 T02890155  RH  044%=      5-min Rain = 0
KVP1 180245Z 16011KT 29/16 A2996 RMK A01 T02890155  RH  044%=      5-min Rain = 0
KVP1 180246Z 16010KT 29/16 A2996 RMK A01 T02890155  RH  044%=      5-min Rain = 0
KVP1 180247Z 16010KT 29/16 A2996 RMK A01 T02880155  RH  044%=      5-min Rain = 0
KVP1 180248Z 16010KT 29/15 A2996 RMK A01 T02870154  RH  045%=      5-min Rain = 0
KVP1 180249Z 16010KT 29/15 A2997 RMK A01 T02870154  RH  045%=      5-min Rain = 0
KVP1 180250Z 16010KT 29/15 A2997 RMK A01 T02860154  RH  045%=      5-min Rain = 0
KVP1 180251Z 16010KT 29/15 A2997 RMK A01 T02850154  RH  045%=      5-min Rain = 0
KVP1 180252Z 16010KT 28/15 A2997 RMK A01 T02840154  RH  045%=      5-min Rain = 0
KVP1 180253Z 16010KT 28/15 A2997 RMK A01 T02840154  RH  045%=      5-min Rain = 0
KVP1 180254Z 16009KT 28/15 A2997 RMK A01 T02830154  RH  045%=      5-min Rain = 0
KVP1 180255Z 16010KT 28/15 A2997 RMK A01 T02820153  RH  045%=      5-min Rain = 0
KVP1 180256Z 16010KT 28/15 A2997 RMK A01 T02830154  RH  046%=      5-min Rain = 0
KVP1 180257Z 16010KT 28/15 A2997 RMK A01 T02820153  RH  046%=      5-min Rain = 0
KVP1 180258Z 16011KT 28/15 A2997 RMK A01 T02820153  RH  045%=      5-min Rain = 0
KVP1 180259Z 16011KT 28/15 A2997 RMK A01 T02820153  RH  045%=      5-min Rain = 0
KVP1 180300Z 16010KT 28/15 A2997 RMK A01 T02820153  RH  045%=      5-min Rain = 0
KVP1 180301Z 16011KT 28/15 A2997 RMK A01 T02820153  RH  045%=      5-min Rain = 0
KVP1 180302Z 16011KT 28/15 A2997 RMK A01 T02820153  RH  045%=      5-min Rain = 0
KVP1 180303Z 16012KT 28/15 A2997 RMK A01 T02830153  RH  045%=      5-min Rain = 0
KVP1 180304Z 16012KT 28/15 A2997 RMK A01 T02830152  RH  045%=      5-min Rain = 0
KVP1 180305Z 16010KT 28/15 A2997 RMK A01 T02830153  RH  045%=      5-min Rain = 0
KVP1 180306Z 16011KT 28/15 A2997 RMK A01 T02830153  RH  045%=      5-min Rain = 0
KVP1 180307Z 16011KT 28/15 A2997 RMK A01 T02820152  RH  045%=      5-min Rain = 0
KVP1 180308Z 16012KT 28/15 A2997 RMK A01 T02820152  RH  045%=      5-min Rain = 0
KVP1 180309Z 16011KT 28/15 A2997 RMK A01 T02820152  RH  045%=      5-min Rain = 0
KVP1 180310Z 16010KT 28/15 A2997 RMK A01 T02820152  RH  045%=      5-min Rain = 0
KVP1 180311Z 16010KT 28/15 A2997 RMK A01 T02820152  RH  045%=      5-min Rain = 0
KVP1 180312Z 16011KT 28/15 A2997 RMK A01 T02810152  RH  045%=      5-min Rain = 0
KVP1 180313Z 16011KT 28/15 A2997 RMK A01 T02810152  RH  045%=      5-min Rain = 0
KVP1 180314Z 16012KT 28/15 A2997 RMK A01 T02810152  RH  045%=      5-min Rain = 0
KVP1 180315Z 16011KT 28/15 A2997 RMK A01 T02810151  RH  045%=      5-min Rain = 0
KVP1 180316Z 16012KT 28/15 A2997 RMK A01 T02810152  RH  045%=      5-min Rain = 0
KVP1 180317Z 16011KT 28/15 A2997 RMK A01 T02810152  RH  045%=      5-min Rain = 0
KVP1 180318Z 16011KT 28/15 A2997 RMK A01 T02810152  RH  045%=      5-min Rain = 0
KVP1 180319Z 16011KT 28/15 A2997 RMK A01 T02810151  RH  045%=      5-min Rain = 0
KVP1 180320Z 15012KT 28/15 A2997 RMK A01 T02810151  RH  045%=      5-min Rain = 0
KVP1 180321Z 16011KT 28/15 A2997 RMK A01 T02810151  RH  045%=      5-min Rain = 0
KVP1 180322Z 16012KT 28/15 A2997 RMK A01 T02800151  RH  045%=      5-min Rain = 0
KVP1 180323Z 16010KT 28/15 A2997 RMK A01 T02790151  RH  045%=      5-min Rain = 0
KVP1 180324Z 16012KT 28/15 A2997 RMK A01 T02790151  RH  046%=      5-min Rain = 0
KVP1 180325Z 16011KT 28/15 A2997 RMK A01 T02790150  RH  045%=      5-min Rain = 0
KVP1 180326Z 16013KT 28/15 A2997 RMK A01 T02790150  RH  045%=      5-min Rain = 0
KVP1 180327Z 16013KT 28/15 A2997 RMK A01 T02810149  RH  045%=      5-min Rain = 0
KVP1 180328Z 16013KT 28/15 A2997 RMK A01 T02820150  RH  044%=      5-min Rain = 0
KVP1 180329Z 16012KT 28/15 A2997 RMK A01 T02820150  RH  044%=      5-min Rain = 0
KVP1 180330Z 16014KT 28/15 A2997 RMK A01 T02820149  RH  044%=      5-min Rain = 0
KVP1 180331Z 16011KT 28/15 A2997 RMK A01 T02820149  RH  044%=      5-min Rain = 0
KVP1 180332Z 16013KT 28/15 A2997 RMK A01 T02820149  RH  044%=      5-min Rain = 0
KVP1 180333Z 16012KT 28/15 A2997 RMK A01 T02820149  RH  044%=      5-min Rain = 0
KVP1 180334Z 17013KT 28/15 A2997 RMK A01 T02820149  RH  044%=      5-min Rain = 0
KVP1 180335Z 16012G17KT 28/15 A2997 RMK A01 T02810148  RH  044%=      5-min Rain = 0
KVP1 180336Z 16013KT 28/15 A2997 RMK A01 T02820148  RH  044%=      5-min Rain = 0
KVP1 180337Z 16013KT 28/15 A2997 RMK A01 T02820148  RH  044%=      5-min Rain = 0
KVP1 180338Z 16012KT 28/15 A2997 RMK A01 T02820148  RH  044%=      5-min Rain = 0
KVP1 180339Z 16011KT 28/15 A2997 RMK A01 T02820148  RH  044%=      5-min Rain = 0
KVP1 180340Z 16011KT 28/15 A2998 RMK A01 T02820148  RH  044%=      5-min Rain = 0
KVP1 180341Z 17012KT 28/15 A2998 RMK A01 T02820148  RH  044%=      5-min Rain = 0
KVP1 180342Z 16011KT 28/15 A2998 RMK A01 T02820148  RH  044%=      5-min Rain = 0
KVP1 180343Z 17011KT 28/15 A2998 RMK A01 T02810148  RH  044%=      5-min Rain = 0
KVP1 180344Z 17009KT 28/15 A2998 RMK A01 T02800148  RH  044%=      5-min Rain = 0
KVP1 180345Z 17011KT 28/15 A2998 RMK A01 T02790148  RH  045%=      5-min Rain = 0
KVP1 180346Z 17010KT 28/15 A2998 RMK A01 T02790147  RH  045%=      5-min Rain = 0
KVP1 180347Z 17011KT 28/15 A2998 RMK A01 T02790147  RH  045%=      5-min Rain = 0
KVP1 180348Z 17010KT 28/15 A2998 RMK A01 T02790147  RH  045%=      5-min Rain = 0
KVP1 180349Z 17011KT 28/15 A2998 RMK A01 T02790147  RH  044%=      5-min Rain = 0
KVP1 180350Z 17011KT 28/15 A2998 RMK A01 T02790148  RH  045%=      5-min Rain = 0
KVP1 180351Z 17010KT 28/15 A2998 RMK A01 T02780147  RH  045%=      5-min Rain = 0
KVP1 180352Z 17011KT 28/15 A2998 RMK A01 T02780147  RH  045%=      5-min Rain = 0
KVP1 180353Z 16012KT 28/15 A2998 RMK A01 T02780147  RH  045%=      5-min Rain = 0
KVP1 180354Z 17012KT 28/15 A2998 RMK A01 T02780148  RH  045%=      5-min Rain = 0
KVP1 180355Z 17014KT 28/15 A2998 RMK A01 T02790148  RH  045%=      5-min Rain = 0
KVP1 180356Z 17013KT 28/15 A2998 RMK A01 T02800148  RH  044%=      5-min Rain = 0
KVP1 180357Z 17013KT 28/15 A2998 RMK A01 T02810149  RH  044%=      5-min Rain = 0
KVP1 180358Z 17014KT 28/15 A2998 RMK A01 T02810149  RH  045%=      5-min Rain = 0
KVP1 180359Z 17013KT 28/15 A2998 RMK A01 T02810149  RH  045%=      5-min Rain = 0
KVP1 180400Z 17014KT 28/15 A2998 RMK A01 T02810150  RH  045%=      5-min Rain = 0
KVP1 180401Z 17012KT 28/15 A2998 RMK A01 T02810150  RH  045%=      5-min Rain = 0
KVP1 180402Z 17011KT 28/15 A2998 RMK A01 T02810150  RH  045%=      5-min Rain = 0
KVP1 180403Z 17012KT 28/15 A2998 RMK A01 T02800150  RH  045%=      5-min Rain = 0
KVP1 180404Z 17012KT 28/15 A2998 RMK A01 T02800151  RH  045%=      5-min Rain = 0
KVP1 180405Z 17012KT 28/15 A2998 RMK A01 T02800151  RH  045%=      5-min Rain = 0
KVP1 180406Z 17011KT 28/15 A2999 RMK A01 T02790151  RH  046%=      5-min Rain = 0
KVP1 180407Z 17012KT 28/15 A2998 RMK A01 T02790152  RH  046%=      5-min Rain = 0
KVP1 180408Z 17012KT 28/15 A2998 RMK A01 T02780152  RH  046%=      5-min Rain = 0
KVP1 180409Z 17013KT 28/15 A2999 RMK A01 T02780152  RH  046%=      5-min Rain = 0
KVP1 180410Z 17013KT 28/15 A2999 RMK A01 T02780153  RH  046%=      5-min Rain = 0
KVP1 180411Z 17013KT 28/15 A2999 RMK A01 T02790153  RH  046%=      5-min Rain = 0
KVP1 180412Z 17014KT 28/15 A2998 RMK A01 T02780153  RH  047%=      5-min Rain = 0
KVP1 180413Z 17013KT 28/15 A2999 RMK A01 T02790154  RH  047%=      5-min Rain = 0
KVP1 180414Z 17011KT 28/15 A2999 RMK A01 T02780154  RH  047%=      5-min Rain = 0
KVP1 180415Z 17013KT 28/16 A2999 RMK A01 T02790156  RH  047%=      5-min Rain = 0
KVP1 180416Z 16013KT 28/16 A2998 RMK A01 T02780156  RH  047%=      5-min Rain = 0
KVP1 180417Z 17014KT 28/16 A2998 RMK A01 T02780157  RH  048%=      5-min Rain = 0
KVP1 180418Z 17013KT 28/16 A2998 RMK A01 T02780158  RH  048%=      5-min Rain = 0
KVP1 180419Z 17013KT 28/16 A2999 RMK A01 T02780158  RH  048%=      5-min Rain = 0
KVP1 180420Z 17014KT 28/16 A2999 RMK A01 T02780159  RH  048%=      5-min Rain = 0
KVP1 180421Z 17015G20KT 28/16 A2999 RMK A01 T02780159  RH  048%=      5-min Rain = 0
KVP1 180422Z 17013KT 28/16 A2999 RMK A01 T02780160  RH  048%=      5-min Rain = 0
KVP1 180423Z 17015KT 28/16 A2999 RMK A01 T02780160  RH  049%=      5-min Rain = 0
KVP1 180424Z 17012KT 28/16 A2999 RMK A01 T02780160  RH  049%=      5-min Rain = 0
KVP1 180425Z 17014KT 28/16 A2999 RMK A01 T02770161  RH  049%=      5-min Rain = 0
KVP1 180426Z 17016KT 28/16 A2999 RMK A01 T02770162  RH  049%=      5-min Rain = 0
KVP1 180427Z 17015KT 28/16 A2999 RMK A01 T02780162  RH  049%=      5-min Rain = 0
KVP1 180428Z 17013KT 28/16 A2999 RMK A01 T02780163  RH  049%=      5-min Rain = 0
KVP1 180429Z 17013KT 28/16 A2999 RMK A01 T02780163  RH  050%=      5-min Rain = 0
KVP1 180430Z 17014KT 28/16 A2999 RMK A01 T02770164  RH  050%=      5-min Rain = 0
KVP1 180431Z 17015KT 28/16 A2999 RMK A01 T02770164  RH  050%=      5-min Rain = 0
KVP1 180432Z 17014KT 28/17 A2999 RMK A01 T02770165  RH  050%=      5-min Rain = 0
KVP1 180433Z 17015KT 28/17 A2999 RMK A01 T02770165  RH  051%=      5-min Rain = 0
KVP1 180434Z 17014KT 28/17 A2999 RMK A01 T02770166  RH  051%=      5-min Rain = 0
KVP1 180435Z 17014G20KT 28/17 A2999 RMK A01 T02770166  RH  051%=      5-min Rain = 0
KVP1 180436Z 17014KT 28/17 A2999 RMK A01 T02770166  RH  051%=      5-min Rain = 0
KVP1 180437Z 17013KT 28/17 A2999 RMK A01 T02760167  RH  051%=      5-min Rain = 0
KVP1 180438Z 17015KT 28/17 A2999 RMK A01 T02750167  RH  052%=      5-min Rain = 0
KVP1 180439Z 17015KT 28/17 A2999 RMK A01 T02750167  RH  052%=      5-min Rain = 0
KVP1 180440Z 17015KT 28/17 A2999 RMK A01 T02760167  RH  052%=      5-min Rain = 0
KVP1 180441Z 17015KT 28/17 A2999 RMK A01 T02760167  RH  052%=      5-min Rain = 0
KVP1 180442Z 17013KT 28/17 A2999 RMK A01 T02760167  RH  051%=      5-min Rain = 0
KVP1 180443Z 17014KT 28/17 A2999 RMK A01 T02760168  RH  052%=      5-min Rain = 0
KVP1 180444Z 17014KT 28/17 A2999 RMK A01 T02760168  RH  052%=      5-min Rain = 0
KVP1 180445Z 17013KT 28/17 A2999 RMK A01 T02750168  RH  052%=      5-min Rain = 0
KVP1 180446Z 17014KT 28/17 A2999 RMK A01 T02750168  RH  052%=      5-min Rain = 0
KVP1 180447Z 17013KT 27/17 A2999 RMK A01 T02740168  RH  052%=      5-min Rain = 0
KVP1 180448Z 17014KT 27/17 A2999 RMK A01 T02740168  RH  052%=      5-min Rain = 0
KVP1 180449Z 17012KT 27/17 A2999 RMK A01 T02740168  RH  052%=      5-min Rain = 0
KVP1 180450Z 17013KT 27/17 A2999 RMK A01 T02740168  RH  052%=      5-min Rain = 0
KVP1 180451Z 17013KT 27/17 A2999 RMK A01 T02730168  RH  052%=      5-min Rain = 0
KVP1 180452Z 17014KT 27/17 A2999 RMK A01 T02730168  RH  052%=      5-min Rain = 0
KVP1 180453Z 17014KT 27/17 A2999 RMK A01 T02730167  RH  052%=      5-min Rain = 0
KVP1 180454Z 17014KT 27/17 A2999 RMK A01 T02740167  RH  052%=      5-min Rain = 0
KVP1 180455Z 17014KT 28/17 A2999 RMK A01 T02750167  RH  052%=      5-min Rain = 0
KVP1 180456Z 17013KT 27/17 A2999 RMK A01 T02740167  RH  052%=      5-min Rain = 0
KVP1 180457Z 17014KT 27/17 A2999 RMK A01 T02740167  RH  052%=      5-min Rain = 0
KVP1 180458Z 17012KT 27/17 A2999 RMK A01 T02740167  RH  052%=      5-min Rain = 0
KVP1 180459Z 17014KT 27/17 A2999 RMK A01 T02730167  RH  052%=      5-min Rain = 0

Page generated in 0.071 seconds.